JAL5 KJFK-RJTT

Flight info

Callsign JAL5
Flight time N/A
Altitude 34000
Route GREKI DCT JUDDS DCT CAM DCT BUGSY DCT PELEE DCT 61N090W 64N100W 66N110W 67N120W/N0494F360 68N130W DCT POTAT NCA30 OME R338 MUCLA/N0484F380 R338 NATES R220 NUZAN/N0496F390 R220 NOGAL/N0484F400 R220 NANAC Y810 AKRIT Y807 LALID Y804 INUBO Y108 MESSE
Aircraft A35K/H-SDE2E3GHIJ3J4J5LM1ORWXY/LB1D1

Departure

Time 2026-05-07 02:10
Airport John F. Kennedy International Airport (KJFK)

Arrival

Time N/A
Airport Tokyo Haneda International Airport (RJTT)
Time Latitude Longitude Altitude Speed Heading
2026-05-07 01:39 40.64964 -73.78970 25 ft 0 kts 198°
2026-05-07 01:52 40.64981 -73.78966 29 ft 3 kts 167°
2026-05-07 01:53 40.65000 -73.78977 26 ft 3 kts 130°
2026-05-07 01:53 40.65009 -73.78996 28 ft 0 kts 108°
2026-05-07 01:54 40.65012 -73.79010 28 ft 0 kts 86°
2026-05-07 01:57 40.65020 -73.78973 27 ft 9 kts 71°
2026-05-07 01:57 40.65040 -73.78896 29 ft 8 kts 76°
2026-05-07 01:57 40.65026 -73.78964 24 ft 0 kts 75°
2026-05-07 01:58 40.65037 -73.78947 27 ft 3 kts 46°
2026-05-07 01:58 40.65051 -73.78934 28 ft 1 kts 30°
2026-05-07 01:58 40.65053 -73.78933 28 ft 2 kts 27°
2026-05-07 01:58 40.65060 -73.78929 30 ft 3 kts 24°
2026-05-07 01:59 40.65113 -73.78909 30 ft 9 kts 16°
2026-05-07 01:59 40.65163 -73.78882 31 ft 5 kts 57°
2026-05-07 01:59 40.65157 -73.78859 28 ft 3 kts 115°
2026-05-07 01:59 40.65148 -73.78820 30 ft 8 kts 101°
2026-05-07 02:00 40.65155 -73.78733 31 ft 7 kts 64°
2026-05-07 02:00 40.65169 -73.78695 29 ft 7 kts 64°
2026-05-07 02:00 40.65202 -73.78614 27 ft 8 kts 59°
2026-05-07 02:00 40.65222 -73.78570 31 ft 9 kts 59°
2026-05-07 02:01 40.65253 -73.78499 31 ft 9 kts 62°
2026-05-07 02:01 40.65267 -73.78417 26 ft 9 kts 94°
2026-05-07 02:01 40.65247 -73.78341 32 ft 9 kts 117°
2026-05-07 02:01 40.65215 -73.78266 31 ft 10 kts 119°
2026-05-07 02:02 40.65180 -73.78189 31 ft 10 kts 122°
2026-05-07 02:02 40.65141 -73.78108 32 ft 11 kts 122°
2026-05-07 02:02 40.65102 -73.78022 29 ft 11 kts 121°
2026-05-07 02:02 40.65061 -73.77933 30 ft 12 kts 121°
2026-05-07 02:03 40.65017 -73.77838 31 ft 12 kts 121°
2026-05-07 02:03 40.64973 -73.77741 30 ft 13 kts 121°
2026-05-07 02:03 40.64927 -73.77639 31 ft 13 kts 119°
2026-05-07 02:03 40.64913 -73.77573 26 ft 7 kts 88°
2026-05-07 02:04 40.64988 -73.77469 31 ft 28 kts 18°
2026-05-07 02:04 40.65069 -73.77420 32 ft 2 kts 31°
2026-05-07 02:04 40.65088 -73.77404 32 ft 4 kts 31°
2026-05-07 02:04 40.65115 -73.77379 31 ft 5 kts 47°
2026-05-07 02:05 40.65117 -73.77294 32 ft 10 kts 111°
2026-05-07 02:05 40.65084 -73.77214 26 ft 10 kts 120°
2026-05-07 02:05 40.65048 -73.77133 27 ft 10 kts 121°
2026-05-07 02:05 40.65010 -73.77051 27 ft 11 kts 121°
2026-05-07 02:06 40.64970 -73.76965 27 ft 11 kts 121°
2026-05-07 02:06 40.64928 -73.76875 27 ft 12 kts 121°
2026-05-07 02:06 40.64892 -73.76796 27 ft 7 kts 121°
2026-05-07 02:06 40.64882 -73.76732 27 ft 7 kts 80°
2026-05-07 02:07 40.64910 -73.76681 27 ft 7 kts 41°
2026-05-07 02:07 40.65000 -73.76602 27 ft 9 kts 31°
2026-05-07 02:07 40.65054 -73.76560 27 ft 9 kts 30°
2026-05-07 02:08 40.65090 -73.76497 27 ft 9 kts 84°
2026-05-07 02:08 40.65077 -73.76425 28 ft 8 kts 115°
2026-05-07 02:08 40.65043 -73.76379 28 ft 7 kts 157°
2026-05-07 02:08 40.65001 -73.76381 28 ft 6 kts 196°
2026-05-07 02:09 40.64964 -73.76403 28 ft 0 kts 207°
2026-05-07 02:09 40.64924 -73.76430 28 ft 28 kts 207°
2026-05-07 02:10 40.64579 -73.76698 30 ft 85 kts 213°
2026-05-07 02:10 40.63934 -73.77207 27 ft 133 kts 211°
2026-05-07 02:10 40.63015 -73.77918 203 ft 158 kts 210°
2026-05-07 02:10 40.62164 -73.78673 830 ft 144 kts 229°
2026-05-07 02:11 40.61823 -73.79892 1192 ft 150 kts 267°
2026-05-07 02:11 40.62180 -73.81279 1297 ft 180 kts 302°
2026-05-07 02:11 40.63357 -73.82188 1223 ft 219 kts 346°
2026-05-07 02:11 40.64914 -73.81761 1474 ft 243 kts 26°
2026-05-07 02:12 40.66194 -73.80267 2009 ft 252 kts 46°
2026-05-07 02:12 40.67258 -73.78321 2271 ft 273 kts 55°
2026-05-07 02:12 40.68295 -73.76166 2716 ft 281 kts 50°
2026-05-07 02:12 40.69702 -73.74404 3281 ft 278 kts 31°
2026-05-07 02:13 40.71368 -73.73109 3867 ft 278 kts 20°
2026-05-07 02:13 40.73157 -73.72088 4346 ft 283 kts 15°
2026-05-07 02:13 40.75019 -73.71183 4803 ft 287 kts 14°
2026-05-07 02:13 40.76898 -73.70296 5020 ft 289 kts 14°
2026-05-07 02:14 40.78800 -73.69375 5480 ft 293 kts 14°
2026-05-07 02:14 40.80707 -73.68409 6163 ft 295 kts 15°
2026-05-07 02:14 40.82629 -73.67399 6748 ft 299 kts 15°
2026-05-07 02:14 40.84576 -73.66352 7270 ft 305 kts 15°
2026-05-07 02:15 40.86525 -73.65292 7878 ft 308 kts 15°
2026-05-07 02:15 40.88515 -73.64202 8534 ft 310 kts 15°
2026-05-07 02:15 40.90520 -73.63101 9174 ft 314 kts 15°
2026-05-07 02:15 40.92548 -73.61990 9727 ft 317 kts 14°
2026-05-07 02:16 40.94594 -73.60870 9932 ft 319 kts 14°
2026-05-07 02:16 40.96652 -73.59745 9967 ft 320 kts 14°
2026-05-07 02:16 40.98712 -73.58618 9961 ft 321 kts 14°
2026-05-07 02:16 41.00787 -73.57483 10041 ft 325 kts 15°
2026-05-07 02:17 41.02918 -73.56326 10245 ft 339 kts 15°
2026-05-07 02:17 41.05162 -73.55112 10496 ft 356 kts 15°
2026-05-07 02:17 41.07508 -73.53838 10753 ft 372 kts 16°
2026-05-07 02:17 41.09952 -73.52503 10996 ft 387 kts 16°
2026-05-07 02:18 41.12446 -73.51139 11221 ft 400 kts 16°
2026-05-07 02:18 41.15064 -73.49701 11450 ft 414 kts 17°
2026-05-07 02:18 41.17756 -73.48212 11739 ft 423 kts 17°
2026-05-07 02:18 41.20491 -73.46685 12193 ft 429 kts 17°
2026-05-07 02:19 41.23267 -73.45147 12585 ft 436 kts 17°
2026-05-07 02:19 41.26075 -73.43590 13117 ft 438 kts 17°
2026-05-07 02:19 41.28893 -73.42026 13663 ft 440 kts 17°
2026-05-07 02:19 41.31729 -73.40455 14092 ft 444 kts 17°
2026-05-07 02:20 41.34591 -73.38873 14544 ft 446 kts 17°
2026-05-07 02:20 41.37462 -73.37286 15032 ft 447 kts 17°
2026-05-07 02:20 41.40338 -73.35691 15562 ft 449 kts 17°
2026-05-07 02:20 41.43233 -73.34085 16056 ft 452 kts 17°
2026-05-07 02:21 41.46113 -73.32334 16501 ft 459 kts 23°
2026-05-07 02:21 41.48810 -73.29972 16940 ft 469 kts 34°
2026-05-07 02:21 41.51314 -73.27134 17404 ft 474 kts 39°
2026-05-07 02:21 41.53699 -73.24133 17850 ft 479 kts 41°
2026-05-07 02:22 41.56067 -73.20980 18284 ft 482 kts 42°
2026-05-07 02:22 41.58498 -73.17871 18612 ft 484 kts 36°
2026-05-07 02:22 41.61219 -73.15235 18952 ft 481 kts 25°
2026-05-07 02:22 41.64215 -73.13320 19322 ft 474 kts 12°
2026-05-07 02:23 41.67378 -73.12264 19738 ft 463 kts 359°
2026-05-07 02:23 41.70553 -73.12073 20175 ft 452 kts 348°
2026-05-07 02:23 41.73676 -73.12364 20628 ft 448 kts 344°
2026-05-07 02:23 41.76771 -73.12849 21099 ft 447 kts 342°
2026-05-07 02:24 41.79854 -73.13424 21524 ft 449 kts 341°
2026-05-07 02:24 41.82959 -73.14028 21953 ft 451 kts 341°
2026-05-07 02:24 41.86073 -73.14622 22467 ft 452 kts 341°
2026-05-07 02:24 41.89158 -73.15189 22971 ft 454 kts 340°
2026-05-07 02:25 41.92302 -73.15748 23461 ft 456 kts 340°
2026-05-07 02:25 41.95456 -73.16296 23853 ft 458 kts 341°
2026-05-07 02:25 41.98631 -73.16841 24241 ft 461 kts 341°
2026-05-07 02:25 42.01829 -73.17391 24540 ft 465 kts 341°
2026-05-07 02:26 42.05058 -73.17946 24921 ft 468 kts 341°
2026-05-07 02:26 42.08292 -73.18499 25328 ft 469 kts 341°
2026-05-07 02:26 42.11545 -73.19056 25719 ft 471 kts 341°
2026-05-07 02:26 42.14813 -73.19617 26100 ft 473 kts 341°
2026-05-07 02:27 42.18093 -73.20182 26475 ft 476 kts 341°
2026-05-07 02:27 42.21355 -73.20745 26835 ft 478 kts 341°
2026-05-07 02:27 42.24665 -73.21313 27150 ft 481 kts 342°
2026-05-07 02:27 42.28008 -73.21831 27505 ft 484 kts 342°
2026-05-07 02:28 42.31372 -73.22332 27853 ft 486 kts 342°
2026-05-07 02:28 42.34744 -73.22846 28193 ft 488 kts 342°
2026-05-07 02:28 42.38123 -73.23381 28559 ft 489 kts 342°
2026-05-07 02:28 42.41513 -73.23941 28962 ft 490 kts 341°
2026-05-07 02:29 42.44846 -73.24511 29386 ft 489 kts 341°
2026-05-07 02:29 42.48217 -73.25092 29913 ft 486 kts 341°
2026-05-07 02:29 42.51566 -73.25670 30334 ft 483 kts 341°
2026-05-07 02:29 42.54890 -73.26246 30719 ft 481 kts 341°
2026-05-07 02:30 42.58208 -73.26820 31069 ft 480 kts 341°
2026-05-07 02:30 42.61517 -73.27390 31422 ft 479 kts 341°
2026-05-07 02:30 42.64821 -73.27968 31732 ft 477 kts 340°
2026-05-07 02:30 42.68105 -73.28543 32137 ft 474 kts 341°
2026-05-07 02:31 42.71381 -73.29112 32452 ft 473 kts 340°
2026-05-07 02:31 42.74646 -73.29680 32703 ft 473 kts 340°
2026-05-07 02:31 42.77908 -73.30253 33038 ft 472 kts 339°
2026-05-07 02:31 42.81111 -73.30822 33405 ft 470 kts 340°
2026-05-07 02:32 42.84363 -73.31400 33540 ft 472 kts 340°
2026-05-07 02:32 42.87623 -73.31978 33740 ft 472 kts 340°
2026-05-07 02:32 42.90888 -73.32555 33873 ft 475 kts 340°
2026-05-07 02:32 42.94176 -73.33140 33879 ft 478 kts 340°
2026-05-07 02:33 43.00637 -73.34728 33921 ft 462 kts 332°
2026-05-07 02:33 43.06780 -73.37302 33878 ft 461 kts 330°
2026-05-07 02:34 43.12870 -73.40033 33888 ft 460 kts 330°
2026-05-07 02:34 43.18949 -73.42792 33888 ft 460 kts 330°
2026-05-07 02:35 43.25057 -73.45564 33894 ft 464 kts 331°
2026-05-07 02:35 43.31209 -73.48350 33899 ft 466 kts 331°
2026-05-07 02:36 43.37332 -73.51118 33904 ft 466 kts 331°
2026-05-07 02:36 43.43496 -73.53915 33900 ft 467 kts 332°
2026-05-07 02:37 43.49695 -73.56738 33883 ft 471 kts 332°
2026-05-07 02:37 43.55926 -73.59573 33884 ft 471 kts 332°
2026-05-07 02:38 43.62152 -73.62416 33877 ft 471 kts 332°
2026-05-07 02:38 43.68379 -73.65268 33906 ft 471 kts 332°
2026-05-07 02:39 43.74607 -73.68120 33877 ft 472 kts 332°
2026-05-07 02:39 43.80842 -73.70993 33878 ft 472 kts 332°
2026-05-07 02:40 43.87051 -73.73857 33880 ft 475 kts 333°
2026-05-07 02:40 43.93327 -73.76761 33881 ft 476 kts 333°
2026-05-07 02:41 43.99616 -73.79667 33876 ft 476 kts 333°
2026-05-07 02:41 44.05903 -73.82580 33884 ft 477 kts 333°
2026-05-07 02:42 44.12229 -73.85537 33885 ft 481 kts 333°
2026-05-07 02:42 44.18586 -73.88484 33871 ft 482 kts 333°
2026-05-07 02:43 44.24943 -73.91454 33886 ft 482 kts 334°
2026-05-07 02:43 44.31313 -73.94438 33882 ft 484 kts 334°
2026-05-07 02:44 44.37706 -73.97438 33892 ft 484 kts 334°
2026-05-07 02:44 44.44060 -74.00424 33886 ft 484 kts 334°
2026-05-07 02:45 44.50463 -74.03445 33921 ft 488 kts 334°
2026-05-07 02:45 44.56914 -74.06494 33872 ft 489 kts 334°
2026-05-07 02:46 44.63363 -74.09545 33875 ft 489 kts 334°
2026-05-07 02:46 44.69823 -74.12611 33887 ft 491 kts 335°
2026-05-07 02:47 44.76264 -74.15845 33885 ft 489 kts 331°
2026-05-07 02:47 44.82493 -74.19658 33888 ft 487 kts 329°
2026-05-07 02:48 44.88639 -74.23522 33884 ft 487 kts 330°
2026-05-07 02:48 44.94873 -74.27351 33881 ft 489 kts 330°
2026-05-07 02:49 45.01143 -74.31146 33872 ft 490 kts 330°
2026-05-07 02:49 45.06351 -74.34293 33875 ft 490 kts 330°
2026-05-07 02:50 45.12624 -74.38096 33869 ft 491 kts 331°
2026-05-07 02:50 45.18923 -74.41929 33878 ft 493 kts 331°
2026-05-07 02:51 45.25226 -74.45771 33865 ft 493 kts 330°
2026-05-07 02:51 45.31533 -74.49626 33872 ft 493 kts 330°
2026-05-07 02:52 45.37857 -74.53502 33864 ft 495 kts 330°
2026-05-07 02:52 45.44148 -74.57367 33863 ft 495 kts 330°
2026-05-07 02:53 45.50476 -74.61262 33859 ft 495 kts 330°
2026-05-07 02:53 45.56811 -74.65172 33861 ft 496 kts 330°
2026-05-07 02:54 45.63156 -74.69100 33853 ft 497 kts 330°
2026-05-07 02:54 45.69505 -74.73039 33858 ft 497 kts 330°
2026-05-07 02:55 45.75856 -74.76988 33847 ft 497 kts 330°
2026-05-07 02:55 45.82157 -74.80916 33848 ft 497 kts 330°
2026-05-07 02:56 45.88500 -74.84881 33848 ft 497 kts 330°
2026-05-07 02:56 45.94847 -74.88858 33845 ft 496 kts 330°
2026-05-07 02:57 46.01183 -74.92837 33841 ft 497 kts 330°
2026-05-07 02:57 46.07529 -74.96834 33835 ft 498 kts 330°
2026-05-07 02:58 46.13876 -75.00843 33838 ft 498 kts 330°
2026-05-07 02:58 46.20177 -75.04832 33858 ft 497 kts 330°
2026-05-07 02:59 46.26532 -75.08862 33843 ft 498 kts 330°
2026-05-07 02:59 46.32864 -75.12887 33830 ft 496 kts 330°
2026-05-07 03:00 46.39191 -75.16922 33827 ft 496 kts 330°
2026-05-07 03:00 46.45511 -75.20963 33824 ft 497 kts 329°
2026-05-07 03:01 46.51843 -75.25024 33822 ft 498 kts 329°
2026-05-07 03:01 46.58177 -75.29094 33821 ft 498 kts 329°
2026-05-07 03:02 46.64464 -75.33144 33824 ft 496 kts 329°
2026-05-07 03:02 46.70781 -75.37222 33823 ft 497 kts 329°
2026-05-07 03:03 46.77103 -75.41318 33823 ft 497 kts 329°
2026-05-07 03:03 46.83424 -75.45423 33824 ft 497 kts 329°
2026-05-07 03:04 46.89737 -75.49531 33834 ft 497 kts 328°
2026-05-07 03:04 46.96075 -75.53669 33857 ft 499 kts 329°
2026-05-07 03:05 47.02417 -75.57817 33819 ft 499 kts 328°
2026-05-07 03:05 47.08758 -75.61976 33829 ft 499 kts 328°
2026-05-07 03:06 47.15099 -75.66146 33825 ft 500 kts 328°
2026-05-07 03:06 47.21416 -75.70314 33831 ft 500 kts 328°
2026-05-07 03:07 47.27769 -75.74514 33830 ft 500 kts 328°
2026-05-07 03:07 47.34124 -75.78727 33886 ft 500 kts 329°
2026-05-07 03:08 47.40493 -75.82964 33835 ft 503 kts 329°
2026-05-07 03:08 47.46874 -75.87217 33841 ft 503 kts 329°
2026-05-07 03:09 47.53255 -75.91479 33840 ft 503 kts 329°
2026-05-07 03:09 47.59636 -75.95755 33845 ft 503 kts 329°
2026-05-07 03:10 47.65983 -76.00021 33847 ft 504 kts 329°
2026-05-07 03:10 47.72376 -76.04329 33847 ft 503 kts 330°
2026-05-07 03:11 47.78741 -76.08626 33847 ft 502 kts 330°
2026-05-07 03:11 47.85095 -76.12931 33848 ft 502 kts 330°
2026-05-07 03:12 47.91468 -76.17261 33855 ft 503 kts 330°
2026-05-07 03:12 47.97803 -76.21574 33852 ft 503 kts 330°
2026-05-07 03:13 48.04166 -76.25919 33847 ft 503 kts 330°
2026-05-07 03:13 48.10522 -76.30273 33859 ft 502 kts 330°
2026-05-07 03:14 48.16866 -76.34628 33858 ft 502 kts 330°
2026-05-07 03:15 48.26350 -76.41162 33864 ft 502 kts 330°
2026-05-07 03:15 48.32697 -76.45552 33860 ft 502 kts 330°
2026-05-07 03:16 48.39045 -76.49952 33862 ft 503 kts 330°
2026-05-07 03:16 48.45404 -76.54370 33862 ft 503 kts 330°
2026-05-07 03:17 48.51752 -76.58795 33864 ft 503 kts 330°
2026-05-07 03:17 48.58103 -76.63236 33865 ft 503 kts 331°
2026-05-07 03:18 48.64454 -76.67689 33864 ft 503 kts 331°
2026-05-07 03:18 48.70773 -76.72130 33865 ft 503 kts 330°
2026-05-07 03:19 48.77128 -76.76610 33883 ft 504 kts 331°
2026-05-07 03:19 48.83487 -76.81107 33868 ft 503 kts 331°
2026-05-07 03:20 48.89836 -76.85606 33867 ft 503 kts 331°
2026-05-07 03:20 48.96175 -76.90112 33873 ft 503 kts 331°
2026-05-07 03:21 49.02508 -76.94628 33878 ft 503 kts 331°
2026-05-07 03:21 49.08855 -76.99166 33872 ft 503 kts 331°
2026-05-07 03:22 49.15158 -77.03684 33875 ft 503 kts 331°
2026-05-07 03:22 49.21498 -77.08244 33870 ft 503 kts 332°
2026-05-07 03:23 49.27829 -77.12809 33882 ft 502 kts 332°
2026-05-07 03:23 49.34157 -77.17383 33876 ft 503 kts 332°
2026-05-07 03:24 49.40480 -77.21968 33882 ft 503 kts 332°
2026-05-07 03:24 49.46763 -77.26536 33886 ft 503 kts 332°
2026-05-07 03:25 49.53079 -77.31143 33883 ft 503 kts 332°
2026-05-07 03:25 49.59410 -77.35774 33892 ft 503 kts 332°
2026-05-07 03:26 49.65724 -77.40406 33886 ft 502 kts 332°
2026-05-07 03:26 49.72028 -77.45042 33887 ft 502 kts 332°
2026-05-07 03:27 49.78341 -77.49700 33887 ft 502 kts 332°
2026-05-07 03:27 49.84653 -77.54369 33887 ft 503 kts 332°
2026-05-07 03:28 49.90960 -77.59049 33889 ft 503 kts 332°
2026-05-07 03:28 49.97230 -77.63716 33905 ft 503 kts 332°
2026-05-07 03:29 50.03530 -77.68420 33891 ft 502 kts 333°
2026-05-07 03:29 50.09825 -77.73131 33893 ft 502 kts 333°
2026-05-07 03:30 50.16113 -77.77851 33893 ft 501 kts 333°
2026-05-07 03:30 50.22401 -77.82586 33893 ft 501 kts 333°
2026-05-07 03:31 50.28682 -77.87330 33892 ft 502 kts 333°
2026-05-07 03:31 50.34975 -77.92096 33894 ft 502 kts 333°
2026-05-07 03:32 50.41261 -77.96872 33891 ft 501 kts 333°
2026-05-07 03:32 50.47535 -78.01652 33895 ft 501 kts 333°
2026-05-07 03:33 50.53807 -78.06444 33895 ft 501 kts 333°
2026-05-07 03:33 50.60080 -78.11252 33894 ft 501 kts 333°
2026-05-07 03:34 50.66306 -78.16038 33895 ft 501 kts 333°
2026-05-07 03:34 50.72571 -78.20868 33894 ft 501 kts 333°
2026-05-07 03:35 50.78838 -78.25719 33900 ft 501 kts 333°
2026-05-07 03:35 50.85099 -78.30575 33896 ft 501 kts 333°
2026-05-07 03:36 50.91354 -78.35439 33899 ft 501 kts 333°
2026-05-07 03:36 50.97576 -78.40293 33895 ft 501 kts 333°
2026-05-07 03:37 51.03824 -78.45184 33893 ft 501 kts 333°
2026-05-07 03:37 51.10068 -78.50086 33895 ft 501 kts 333°
2026-05-07 03:38 51.16320 -78.55009 33892 ft 501 kts 333°
2026-05-07 03:38 51.22561 -78.59939 33888 ft 500 kts 333°
2026-05-07 03:39 51.28794 -78.64878 33889 ft 500 kts 333°
2026-05-07 03:39 51.33976 -78.68994 33890 ft 500 kts 333°
2026-05-07 03:40 51.40209 -78.73960 33886 ft 500 kts 333°
2026-05-07 03:40 51.46441 -78.78940 33889 ft 500 kts 333°
2026-05-07 03:41 51.52686 -78.83945 33886 ft 500 kts 333°
2026-05-07 03:41 51.58877 -78.88924 33886 ft 500 kts 333°
2026-05-07 03:42 51.65093 -78.93937 33884 ft 500 kts 333°
2026-05-07 03:42 51.71309 -78.98966 33881 ft 499 kts 333°
2026-05-07 03:43 51.77518 -79.04005 33891 ft 499 kts 333°
2026-05-07 03:43 51.83730 -79.09062 33878 ft 499 kts 333°
2026-05-07 03:44 51.89891 -79.14093 33875 ft 499 kts 333°
2026-05-07 03:44 51.96090 -79.19170 33876 ft 499 kts 333°
2026-05-07 03:45 52.02278 -79.24255 33874 ft 498 kts 333°
2026-05-07 03:45 52.08454 -79.29346 33879 ft 498 kts 333°
2026-05-07 03:46 52.14630 -79.34452 33873 ft 497 kts 333°
2026-05-07 03:46 52.20806 -79.39574 33872 ft 497 kts 333°
2026-05-07 03:47 52.26970 -79.44703 33873 ft 497 kts 333°
2026-05-07 03:47 52.33133 -79.49847 33877 ft 497 kts 333°
2026-05-07 03:48 52.39253 -79.54971 33876 ft 497 kts 333°
2026-05-07 03:48 52.45410 -79.60142 33873 ft 497 kts 333°
2026-05-07 03:49 52.51559 -79.65323 33869 ft 497 kts 333°
2026-05-07 03:49 52.57721 -79.70532 33876 ft 497 kts 333°
2026-05-07 03:50 52.63836 -79.75718 33876 ft 497 kts 333°
2026-05-07 03:50 52.70019 -79.80977 33870 ft 497 kts 333°
2026-05-07 03:51 52.76122 -79.86184 33873 ft 497 kts 333°
2026-05-07 03:51 52.82254 -79.91434 33863 ft 496 kts 333°
2026-05-07 03:52 52.88380 -79.96696 33863 ft 496 kts 333°
2026-05-07 03:52 52.94493 -80.02019 33854 ft 496 kts 331°
2026-05-07 03:53 53.00475 -80.07738 33867 ft 496 kts 330°
2026-05-07 03:53 53.06376 -80.13523 33860 ft 495 kts 330°
2026-05-07 03:54 53.12331 -80.19312 33857 ft 495 kts 330°
2026-05-07 03:54 53.18293 -80.25076 33848 ft 495 kts 330°
2026-05-07 03:55 53.24256 -80.30846 33846 ft 495 kts 330°
2026-05-07 03:55 53.30202 -80.36618 33861 ft 494 kts 330°
2026-05-07 03:56 53.36151 -80.42414 33848 ft 494 kts 330°
2026-05-07 03:56 53.42097 -80.48230 33846 ft 494 kts 330°
2026-05-07 03:57 53.47994 -80.54015 33847 ft 494 kts 330°
2026-05-07 03:57 53.53944 -80.59871 33848 ft 494 kts 330°
2026-05-07 03:58 53.59880 -80.65733 33844 ft 494 kts 330°
2026-05-07 03:58 53.65804 -80.71602 33843 ft 494 kts 330°
2026-05-07 03:59 53.71726 -80.77488 33841 ft 494 kts 330°
2026-05-07 03:59 53.77640 -80.83386 33840 ft 494 kts 330°
2026-05-07 04:00 53.83517 -80.89266 33834 ft 494 kts 330°
2026-05-07 04:00 53.89434 -80.95207 33835 ft 494 kts 330°
2026-05-07 04:01 53.95340 -81.01153 33835 ft 493 kts 329°
2026-05-07 04:01 54.01247 -81.07112 33834 ft 492 kts 329°
2026-05-07 04:02 54.07132 -81.13083 33829 ft 492 kts 329°
2026-05-07 04:02 54.12966 -81.19024 33824 ft 492 kts 330°
2026-05-07 04:03 54.18836 -81.25018 33832 ft 492 kts 329°
2026-05-07 04:03 54.24698 -81.31026 33818 ft 490 kts 329°
2026-05-07 04:04 54.30546 -81.37037 33818 ft 490 kts 329°
2026-05-07 04:04 54.36386 -81.43056 33810 ft 490 kts 329°
2026-05-07 04:05 54.42226 -81.49100 33815 ft 490 kts 329°
2026-05-07 04:05 54.48056 -81.55145 33808 ft 489 kts 329°
2026-05-07 04:06 54.53875 -81.61210 33809 ft 488 kts 329°
2026-05-07 04:06 54.59695 -81.67292 33798 ft 488 kts 329°
2026-05-07 04:07 54.65457 -81.73351 33801 ft 488 kts 329°
2026-05-07 04:07 54.71301 -81.79513 33795 ft 488 kts 328°
2026-05-07 04:08 54.77075 -81.85587 33794 ft 488 kts 329°
2026-05-07 04:08 54.82870 -81.91712 33785 ft 487 kts 328°
2026-05-07 04:09 54.88642 -81.97860 33788 ft 487 kts 328°
2026-05-07 04:09 54.94382 -82.03966 33777 ft 487 kts 328°
2026-05-07 04:10 55.00150 -82.10143 33780 ft 487 kts 328°
2026-05-07 04:10 55.05920 -82.16354 33772 ft 487 kts 328°
2026-05-07 04:11 55.11690 -82.22564 33768 ft 486 kts 328°
2026-05-07 04:11 55.17458 -82.28789 33764 ft 486 kts 328°
2026-05-07 04:12 55.23181 -82.34985 33765 ft 486 kts 328°
2026-05-07 04:12 55.28926 -82.41249 33762 ft 486 kts 328°
2026-05-07 04:13 55.34673 -82.47539 33745 ft 486 kts 328°
2026-05-07 04:13 55.40407 -82.53843 33746 ft 485 kts 328°
2026-05-07 04:14 55.46137 -82.60157 33735 ft 486 kts 328°
2026-05-07 04:14 55.51876 -82.66479 33741 ft 486 kts 328°
2026-05-07 04:15 55.57558 -82.72777 33741 ft 485 kts 328°
2026-05-07 04:15 55.63269 -82.79128 33731 ft 485 kts 327°
2026-05-07 04:16 55.68987 -82.85502 33725 ft 485 kts 327°
2026-05-07 04:16 55.74698 -82.91888 33725 ft 486 kts 327°
2026-05-07 04:17 55.80414 -82.98296 33714 ft 485 kts 327°
2026-05-07 04:17 55.86124 -83.04736 33719 ft 485 kts 328°
2026-05-07 04:18 55.91803 -83.11159 33704 ft 485 kts 327°
2026-05-07 04:18 55.97492 -83.17619 33705 ft 484 kts 327°
2026-05-07 04:19 56.03178 -83.24100 33707 ft 484 kts 328°
2026-05-07 04:19 56.08854 -83.30587 33706 ft 483 kts 328°
2026-05-07 04:20 56.14516 -83.37090 33702 ft 484 kts 328°
2026-05-07 04:20 56.20193 -83.43624 33704 ft 484 kts 328°
2026-05-07 04:21 56.28689 -83.53448 33695 ft 484 kts 327°
2026-05-07 04:21 56.34314 -83.59984 33700 ft 484 kts 327°
2026-05-07 04:22 56.39980 -83.66584 33690 ft 484 kts 327°
2026-05-07 04:22 56.45639 -83.73204 33692 ft 484 kts 327°
2026-05-07 04:23 56.51293 -83.79844 33686 ft 485 kts 327°
2026-05-07 04:23 56.56959 -83.86519 33684 ft 484 kts 327°
2026-05-07 04:24 56.62604 -83.93201 33676 ft 485 kts 327°
2026-05-07 04:24 56.68263 -83.99917 33676 ft 486 kts 327°
2026-05-07 04:25 56.73922 -84.06660 33665 ft 487 kts 327°
2026-05-07 04:25 56.79595 -84.13443 33668 ft 488 kts 327°
2026-05-07 04:26 56.85274 -84.20263 33664 ft 488 kts 327°
2026-05-07 04:26 56.90897 -84.27038 33664 ft 487 kts 327°
2026-05-07 04:27 56.96553 -84.33875 33656 ft 487 kts 328°
2026-05-07 04:27 57.02267 -84.40574 33661 ft 489 kts 330°
2026-05-07 04:28 57.08002 -84.47322 33653 ft 490 kts 329°
2026-05-07 04:28 57.13705 -84.54221 33648 ft 490 kts 329°
2026-05-07 04:29 57.19390 -84.61199 33652 ft 490 kts 329°
2026-05-07 04:29 57.25055 -84.68194 33645 ft 489 kts 329°
2026-05-07 04:30 57.29755 -84.74009 33641 ft 489 kts 329°
2026-05-07 04:30 57.36342 -84.82178 33643 ft 489 kts 329°
2026-05-07 04:31 57.41081 -84.88078 33635 ft 489 kts 329°
2026-05-07 04:31 57.46739 -84.95148 33637 ft 489 kts 329°
2026-05-07 04:32 57.52350 -85.02186 33635 ft 489 kts 329°
2026-05-07 04:32 57.57997 -85.09297 33636 ft 490 kts 329°
2026-05-07 04:33 57.63635 -85.16427 33646 ft 477 kts 329°
2026-05-07 04:33 57.66308 -85.19809 33643 ft 452 kts 329°
2026-05-07 04:33 57.68840 -85.23030 33597 ft 431 kts 329°
2026-05-07 04:34 57.73716 -85.29345 33635 ft 428 kts 329°
2026-05-07 04:34 57.78679 -85.35743 33630 ft 438 kts 329°
2026-05-07 04:35 57.83773 -85.42258 33634 ft 448 kts 329°
2026-05-07 04:35 57.88977 -85.48912 33629 ft 457 kts 329°
2026-05-07 04:36 57.94290 -85.55729 33631 ft 467 kts 329°
2026-05-07 04:36 57.99711 -85.62708 33627 ft 477 kts 329°
2026-05-07 04:37 58.05196 -85.69808 33636 ft 485 kts 329°
2026-05-07 04:37 58.10796 -85.77109 33623 ft 491 kts 329°
2026-05-07 04:38 58.16411 -85.84476 33630 ft 492 kts 329°
2026-05-07 04:38 58.22045 -85.91895 33622 ft 493 kts 329°
2026-05-07 04:39 58.27666 -85.99324 33622 ft 493 kts 329°
2026-05-07 04:39 58.33290 -86.06785 33625 ft 493 kts 329°
2026-05-07 04:40 58.38909 -86.14266 33619 ft 493 kts 328°
2026-05-07 04:40 58.44528 -86.21776 33617 ft 494 kts 329°
2026-05-07 04:41 58.50168 -86.29340 33623 ft 494 kts 329°
2026-05-07 04:41 58.55746 -86.36859 33615 ft 493 kts 329°
2026-05-07 04:42 58.61359 -86.44454 33619 ft 493 kts 328°
2026-05-07 04:42 58.66973 -86.52081 33619 ft 493 kts 328°
2026-05-07 04:43 58.72572 -86.59716 33622 ft 492 kts 328°
2026-05-07 04:43 58.78129 -86.67320 33616 ft 493 kts 328°
2026-05-07 04:44 58.83719 -86.75003 33625 ft 493 kts 328°
2026-05-07 04:44 58.89306 -86.82715 33628 ft 493 kts 328°
2026-05-07 04:45 58.94880 -86.90442 33626 ft 492 kts 328°
2026-05-07 04:45 59.00435 -86.98177 33632 ft 491 kts 328°
2026-05-07 04:46 59.05978 -87.05922 33631 ft 491 kts 329°
2026-05-07 04:46 59.11531 -87.13698 33627 ft 492 kts 329°
2026-05-07 04:47 59.17047 -87.21475 33631 ft 492 kts 329°
2026-05-07 04:47 59.22619 -87.29353 33633 ft 492 kts 329°
2026-05-07 04:48 59.28148 -87.37219 33626 ft 493 kts 328°
2026-05-07 04:48 59.33648 -87.45075 33629 ft 492 kts 329°
2026-05-07 04:49 59.39174 -87.52978 33631 ft 491 kts 328°
2026-05-07 04:49 59.44690 -87.60901 33628 ft 491 kts 329°
2026-05-07 04:50 59.50202 -87.68861 33633 ft 491 kts 329°
2026-05-07 04:50 59.55701 -87.76834 33630 ft 490 kts 329°
2026-05-07 04:51 59.61200 -87.84836 33627 ft 491 kts 328°
2026-05-07 04:51 59.66696 -87.92868 33638 ft 491 kts 328°
2026-05-07 04:52 59.72190 -88.00933 33632 ft 491 kts 328°
2026-05-07 04:52 59.77644 -88.08972 33632 ft 491 kts 328°
2026-05-07 04:53 59.83118 -88.17069 33639 ft 490 kts 328°
2026-05-07 04:53 59.88594 -88.25208 33633 ft 491 kts 328°
2026-05-07 04:54 59.94080 -88.33400 33633 ft 493 kts 328°
2026-05-07 04:54 59.99560 -88.41636 33643 ft 493 kts 328°
2026-05-07 04:55 60.05034 -88.49876 33639 ft 493 kts 328°
2026-05-07 04:55 60.10475 -88.58105 33643 ft 493 kts 328°
2026-05-07 04:56 60.15950 -88.66408 33642 ft 493 kts 328°
2026-05-07 04:56 60.21425 -88.74744 33645 ft 494 kts 328°
2026-05-07 04:57 60.26892 -88.83118 33645 ft 494 kts 328°
2026-05-07 04:57 60.32358 -88.91531 33639 ft 494 kts 328°
2026-05-07 04:58 60.37815 -88.99965 33648 ft 494 kts 328°
2026-05-07 04:58 60.43268 -89.08424 33645 ft 494 kts 327°
2026-05-07 04:59 60.48687 -89.16871 33644 ft 495 kts 327°
2026-05-07 04:59 60.54147 -89.25419 33653 ft 495 kts 327°
2026-05-07 05:00 60.59599 -89.33986 33653 ft 495 kts 327°
2026-05-07 05:00 60.65053 -89.42591 33647 ft 496 kts 327°
2026-05-07 05:01 60.70505 -89.51239 33659 ft 496 kts 327°
2026-05-07 05:01 60.75944 -89.59909 33651 ft 495 kts 327°
2026-05-07 05:02 60.81388 -89.68618 33656 ft 496 kts 327°
2026-05-07 05:02 60.86825 -89.77350 33650 ft 496 kts 327°
2026-05-07 05:03 60.92221 -89.86060 33650 ft 496 kts 327°
2026-05-07 05:03 60.97656 -89.94873 33646 ft 497 kts 327°
2026-05-07 05:04 61.02488 -90.05209 33664 ft 504 kts 314°
2026-05-07 05:04 61.06804 -90.16588 33657 ft 503 kts 313°
2026-05-07 05:05 61.11019 -90.28118 33666 ft 503 kts 312°
2026-05-07 05:05 61.15218 -90.39691 33664 ft 503 kts 312°
2026-05-07 05:06 61.19416 -90.51276 33665 ft 503 kts 312°
2026-05-07 05:06 61.23582 -90.62808 33683 ft 503 kts 312°
2026-05-07 05:07 61.27769 -90.74453 33676 ft 503 kts 312°
2026-05-07 05:07 61.31947 -90.86132 33686 ft 502 kts 312°
2026-05-07 05:08 61.36114 -90.97841 33683 ft 503 kts 312°
2026-05-07 05:08 61.40281 -91.09606 33682 ft 504 kts 312°
2026-05-07 05:09 61.44414 -91.21339 33694 ft 504 kts 311°
2026-05-07 05:09 61.48563 -91.33178 33694 ft 504 kts 311°
2026-05-07 05:10 61.52703 -91.45054 33697 ft 504 kts 311°
2026-05-07 05:10 61.56819 -91.56922 33700 ft 503 kts 311°
2026-05-07 05:11 61.60899 -91.68745 33699 ft 503 kts 311°
2026-05-07 05:11 61.64995 -91.80671 33711 ft 503 kts 311°
2026-05-07 05:12 61.69082 -91.92637 33714 ft 503 kts 311°
2026-05-07 05:12 61.73154 -92.04622 33724 ft 503 kts 311°
2026-05-07 05:13 61.77217 -92.16646 33714 ft 502 kts 311°
2026-05-07 05:13 61.81246 -92.28635 33734 ft 500 kts 311°
2026-05-07 05:14 61.85237 -92.40562 33732 ft 499 kts 311°
2026-05-07 05:14 61.89244 -92.52601 33732 ft 499 kts 311°
2026-05-07 05:15 61.93243 -92.64676 33747 ft 500 kts 310°
2026-05-07 05:15 61.97231 -92.76788 33748 ft 500 kts 310°
2026-05-07 05:16 62.01211 -92.88942 33740 ft 500 kts 310°
2026-05-07 05:16 62.05162 -93.01080 33759 ft 497 kts 310°
2026-05-07 05:17 62.09071 -93.13139 33757 ft 497 kts 310°
2026-05-07 05:17 62.12991 -93.25293 33782 ft 497 kts 310°
2026-05-07 05:18 62.16903 -93.37488 33765 ft 497 kts 310°
2026-05-07 05:18 62.20804 -93.49717 33783 ft 497 kts 310°
2026-05-07 05:19 62.24039 -93.59907 33787 ft 497 kts 310°
2026-05-07 05:19 62.27912 -93.72178 33787 ft 495 kts 310°
2026-05-07 05:20 62.31761 -93.84433 33800 ft 494 kts 310°
2026-05-07 05:20 62.35598 -93.96708 33807 ft 494 kts 310°
2026-05-07 05:21 62.41332 -94.15174 33818 ft 494 kts 310°
2026-05-07 05:22 62.45140 -94.27527 33816 ft 494 kts 310°
2026-05-07 05:22 62.48942 -94.39924 33818 ft 495 kts 309°
2026-05-07 05:23 62.52716 -94.52313 33834 ft 491 kts 310°
2026-05-07 05:23 62.56439 -94.64586 33834 ft 491 kts 310°
2026-05-07 05:24 62.60184 -94.76993 33848 ft 491 kts 309°
2026-05-07 05:24 62.63913 -94.89419 33848 ft 491 kts 309°
2026-05-07 05:25 62.67628 -95.01866 33848 ft 491 kts 309°
2026-05-07 05:25 62.71334 -95.14355 33867 ft 491 kts 309°
2026-05-07 05:26 62.75024 -95.26865 33864 ft 489 kts 309°
2026-05-07 05:26 62.78690 -95.39359 33879 ft 488 kts 309°
2026-05-07 05:27 62.82343 -95.51867 33883 ft 488 kts 309°
2026-05-07 05:27 62.85989 -95.64421 33884 ft 488 kts 309°
2026-05-07 05:28 62.89597 -95.76915 33909 ft 488 kts 309°
2026-05-07 05:28 62.93215 -95.89520 33903 ft 488 kts 309°
2026-05-07 05:29 62.96828 -96.02179 33894 ft 488 kts 309°
2026-05-07 05:29 63.00421 -96.14846 33909 ft 487 kts 309°
2026-05-07 05:30 63.04016 -96.27567 33925 ft 489 kts 309°
2026-05-07 05:30 63.07573 -96.40231 33941 ft 489 kts 309°
2026-05-07 05:31 63.11144 -96.53027 33944 ft 489 kts 309°
2026-05-07 05:31 63.14703 -96.65850 33955 ft 489 kts 308°
2026-05-07 05:32 63.18251 -96.78707 33955 ft 489 kts 308°
2026-05-07 05:32 63.21791 -96.91609 33958 ft 489 kts 308°
2026-05-07 05:33 63.25316 -97.04529 33974 ft 489 kts 308°
2026-05-07 05:33 63.28835 -97.17496 33974 ft 491 kts 308°
2026-05-07 05:34 63.32331 -97.30459 33977 ft 492 kts 308°
2026-05-07 05:34 63.35838 -97.43546 33977 ft 492 kts 308°
2026-05-07 05:35 63.39343 -97.56696 33978 ft 492 kts 308°
2026-05-07 05:35 63.42828 -97.69854 33986 ft 493 kts 308°
2026-05-07 05:36 63.46306 -97.83054 33993 ft 492 kts 308°
2026-05-07 05:36 63.49773 -97.96289 33993 ft 492 kts 308°
2026-05-07 05:37 63.53229 -98.09563 34016 ft 493 kts 307°
2026-05-07 05:37 63.56651 -98.22786 34023 ft 494 kts 307°
2026-05-07 05:38 63.60096 -98.36183 34016 ft 494 kts 307°
2026-05-07 05:38 63.63516 -98.49562 34021 ft 494 kts 307°
2026-05-07 05:39 63.66935 -98.63013 34025 ft 495 kts 307°
2026-05-07 05:39 63.70322 -98.76421 34048 ft 495 kts 307°
2026-05-07 05:40 63.73717 -98.89950 34050 ft 495 kts 306°
2026-05-07 05:40 63.77101 -99.03512 34034 ft 495 kts 306°
2026-05-07 05:41 63.80478 -99.17130 34056 ft 496 kts 306°
2026-05-07 05:41 63.83844 -99.30790 34061 ft 496 kts 306°
2026-05-07 05:42 63.87199 -99.44480 34071 ft 496 kts 306°
2026-05-07 05:42 63.90530 -99.58170 34075 ft 495 kts 305°
2026-05-07 05:43 63.93828 -99.71813 34077 ft 495 kts 305°
2026-05-07 05:43 63.97136 -99.85578 34091 ft 495 kts 305°
2026-05-07 05:44 64.00432 -99.99378 34089 ft 495 kts 305°
2026-05-07 05:44 64.03788 -100.13100 34100 ft 496 kts 306°
2026-05-07 05:45 64.07234 -100.26781 34101 ft 497 kts 306°
2026-05-07 05:45 64.10662 -100.40510 34101 ft 497 kts 306°
2026-05-07 05:46 64.14035 -100.54208 34110 ft 497 kts 305°
2026-05-07 05:46 64.17412 -100.68049 34110 ft 497 kts 305°
2026-05-07 05:47 64.20774 -100.81916 34125 ft 497 kts 305°
2026-05-07 05:47 64.24134 -100.95854 34124 ft 497 kts 305°
2026-05-07 05:48 64.27472 -101.09788 34124 ft 498 kts 305°
2026-05-07 05:48 64.30802 -101.23770 34126 ft 498 kts 304°
2026-05-07 05:49 64.34122 -101.37800 34138 ft 498 kts 304°
2026-05-07 05:49 64.37426 -101.51873 34137 ft 498 kts 304°
2026-05-07 05:50 64.40700 -101.65902 34143 ft 499 kts 303°
2026-05-07 05:50 64.43980 -101.80046 34140 ft 499 kts 303°
2026-05-07 05:51 64.47249 -101.94235 34146 ft 499 kts 303°
2026-05-07 05:51 64.50503 -102.08451 34148 ft 499 kts 303°
2026-05-07 05:52 64.53745 -102.22695 34147 ft 497 kts 302°
2026-05-07 05:52 64.56954 -102.36910 34155 ft 497 kts 302°
2026-05-07 05:53 64.60154 -102.51174 34153 ft 496 kts 302°
2026-05-07 05:53 64.63337 -102.65456 34151 ft 497 kts 302°
2026-05-07 05:54 64.66490 -102.79694 34159 ft 497 kts 302°
2026-05-07 05:54 64.69654 -102.94078 34161 ft 497 kts 302°
2026-05-07 05:55 64.72795 -103.08460 34156 ft 496 kts 302°
2026-05-07 05:55 64.75916 -103.22850 34171 ft 494 kts 302°
2026-05-07 05:56 64.79017 -103.37233 34173 ft 494 kts 302°
2026-05-07 05:56 64.82099 -103.51629 34178 ft 494 kts 302°
2026-05-07 05:57 64.85170 -103.66072 34178 ft 494 kts 301°
2026-05-07 05:57 64.88206 -103.80450 34182 ft 494 kts 301°
2026-05-07 05:58 64.91251 -103.94969 34182 ft 494 kts 301°
2026-05-07 05:58 64.94274 -104.09507 34177 ft 492 kts 302°
2026-05-07 05:59 64.97265 -104.23986 34182 ft 489 kts 302°
2026-05-07 05:59 65.00237 -104.38434 34185 ft 489 kts 302°
2026-05-07 06:00 65.03195 -104.52922 34181 ft 489 kts 302°
2026-05-07 06:00 65.06143 -104.67468 34181 ft 489 kts 302°
2026-05-07 06:01 65.09054 -104.81944 34177 ft 489 kts 301°
2026-05-07 06:01 65.11972 -104.96550 34177 ft 489 kts 301°
2026-05-07 06:02 65.14861 -105.11142 34176 ft 486 kts 302°
2026-05-07 06:02 65.17719 -105.25660 34175 ft 484 kts 302°
2026-05-07 06:03 65.20567 -105.40206 34167 ft 484 kts 301°
2026-05-07 06:03 65.23400 -105.54784 34167 ft 484 kts 301°
2026-05-07 06:04 65.26214 -105.69382 34168 ft 484 kts 301°
2026-05-07 06:04 65.29000 -105.83937 34160 ft 484 kts 301°
2026-05-07 06:05 65.31789 -105.98609 34154 ft 484 kts 301°
2026-05-07 06:05 65.34560 -106.13300 34155 ft 485 kts 301°
2026-05-07 06:06 65.37320 -106.28035 34146 ft 485 kts 301°
2026-05-07 06:06 65.40069 -106.42818 34146 ft 485 kts 300°
2026-05-07 06:07 65.42804 -106.57637 34146 ft 485 kts 300°
2026-05-07 06:07 65.45528 -106.72505 34146 ft 485 kts 300°
2026-05-07 06:08 65.47779 -106.84879 34143 ft 485 kts 300°
2026-05-07 06:08 65.50911 -107.02221 34116 ft 485 kts 299°
2026-05-07 06:09 65.53575 -107.17105 34130 ft 482 kts 299°
2026-05-07 06:09 65.55776 -107.29478 34135 ft 482 kts 299°
2026-05-07 06:10 65.58410 -107.44384 34120 ft 482 kts 299°
2026-05-07 06:10 65.61033 -107.59331 34127 ft 483 kts 298°
2026-05-07 06:11 65.63645 -107.74339 34124 ft 483 kts 298°
2026-05-07 06:11 65.66236 -107.89347 34110 ft 483 kts 298°
2026-05-07 06:12 65.68796 -108.04289 34114 ft 483 kts 298°
2026-05-07 06:12 65.71362 -108.19362 34113 ft 482 kts 297°
2026-05-07 06:13 65.73908 -108.34454 34100 ft 482 kts 297°
2026-05-07 06:13 65.76441 -108.49594 34100 ft 482 kts 297°
2026-05-07 06:14 65.78962 -108.64755 34100 ft 484 kts 297°
2026-05-07 06:14 65.81474 -108.80003 34091 ft 484 kts 296°
2026-05-07 06:15 65.83969 -108.95278 34091 ft 485 kts 296°
2026-05-07 06:15 65.86435 -109.10489 34091 ft 485 kts 296°
2026-05-07 06:16 65.88901 -109.25811 34092 ft 485 kts 296°
2026-05-07 06:16 65.91356 -109.41206 34091 ft 485 kts 295°
2026-05-07 06:17 65.93795 -109.56620 34094 ft 485 kts 295°
2026-05-07 06:17 65.96202 -109.71959 34088 ft 485 kts 295°
2026-05-07 06:18 65.98610 -109.87430 34097 ft 486 kts 295°
2026-05-07 06:18 66.01011 -110.02984 34095 ft 487 kts 295°
2026-05-07 06:19 66.03215 -110.18763 34094 ft 488 kts 291°
2026-05-07 06:19 66.05296 -110.34645 34094 ft 488 kts 291°
2026-05-07 06:20 66.07370 -110.50472 34097 ft 488 kts 291°
2026-05-07 06:20 66.09471 -110.66412 34097 ft 488 kts 291°
2026-05-07 06:21 66.11565 -110.82362 34099 ft 488 kts 291°
2026-05-07 06:21 66.13645 -110.98327 34093 ft 489 kts 290°
2026-05-07 06:22 66.15714 -111.14374 34089 ft 491 kts 290°
2026-05-07 06:22 66.18782 -111.38472 34089 ft 494 kts 289°
2026-05-07 06:23 66.20819 -111.54704 34078 ft 493 kts 289°
2026-05-07 06:23 66.22834 -111.70952 34065 ft 493 kts 288°
2026-05-07 06:24 66.24841 -111.87231 34067 ft 493 kts 288°
2026-05-07 06:24 66.26828 -112.03549 34058 ft 493 kts 289°
2026-05-07 06:25 66.28796 -112.19859 34042 ft 492 kts 288°
2026-05-07 06:25 66.30737 -112.36081 34050 ft 492 kts 288°
2026-05-07 06:26 66.32676 -112.52445 34034 ft 494 kts 287°
2026-05-07 06:26 66.34597 -112.68900 34024 ft 494 kts 287°
2026-05-07 06:27 66.36501 -112.85378 34023 ft 494 kts 287°
2026-05-07 06:27 66.38388 -113.01861 34012 ft 495 kts 287°
2026-05-07 06:28 66.40260 -113.18383 34012 ft 494 kts 287°
2026-05-07 06:28 66.42102 -113.34819 34012 ft 494 kts 287°
2026-05-07 06:29 66.43938 -113.51379 34009 ft 495 kts 286°
2026-05-07 06:29 66.45756 -113.67971 34010 ft 495 kts 286°
2026-05-07 06:30 66.47560 -113.84619 34009 ft 495 kts 285°
2026-05-07 06:30 66.49345 -114.01272 34007 ft 495 kts 285°
2026-05-07 06:31 66.51115 -114.17981 34007 ft 495 kts 285°
2026-05-07 06:31 66.52865 -114.34683 34005 ft 495 kts 285°
2026-05-07 06:32 66.54587 -114.51322 34023 ft 495 kts 285°
2026-05-07 06:32 66.56304 -114.68096 34001 ft 496 kts 284°
2026-05-07 06:33 66.58004 -114.84909 33998 ft 496 kts 284°
2026-05-07 06:33 66.59689 -115.01764 33992 ft 496 kts 284°
2026-05-07 06:34 66.61353 -115.18620 33980 ft 497 kts 284°
2026-05-07 06:34 66.62998 -115.35508 33980 ft 497 kts 284°
2026-05-07 06:35 66.64628 -115.52430 33980 ft 496 kts 284°
2026-05-07 06:35 66.66230 -115.69276 33962 ft 496 kts 284°
2026-05-07 06:36 66.67818 -115.86194 33961 ft 495 kts 283°
2026-05-07 06:36 66.69386 -116.03104 33965 ft 495 kts 283°
2026-05-07 06:37 66.70937 -116.20034 33956 ft 494 kts 283°
2026-05-07 06:37 66.72469 -116.36996 33959 ft 494 kts 283°
2026-05-07 06:38 66.73982 -116.53968 33952 ft 494 kts 283°
2026-05-07 06:38 66.75474 -116.70938 33948 ft 494 kts 283°
2026-05-07 06:39 66.76940 -116.87830 33948 ft 494 kts 282°
2026-05-07 06:39 66.78396 -117.04839 33942 ft 494 kts 282°
2026-05-07 06:40 66.79835 -117.21868 33941 ft 494 kts 282°
2026-05-07 06:40 66.81254 -117.38913 33944 ft 494 kts 282°
2026-05-07 06:41 66.82657 -117.55997 33945 ft 494 kts 282°
2026-05-07 06:41 66.84039 -117.73082 33943 ft 494 kts 282°
2026-05-07 06:42 66.85404 -117.90198 33949 ft 494 kts 282°
2026-05-07 06:42 66.86745 -118.07290 33940 ft 492 kts 282°
2026-05-07 06:43 66.88059 -118.24249 33941 ft 492 kts 282°
2026-05-07 06:43 66.89363 -118.41340 33945 ft 492 kts 281°
2026-05-07 06:44 66.90648 -118.58444 33944 ft 491 kts 281°
2026-05-07 06:44 66.91915 -118.75573 33944 ft 491 kts 281°
2026-05-07 06:45 66.93162 -118.92686 33952 ft 492 kts 281°
2026-05-07 06:45 66.94392 -119.09865 33957 ft 491 kts 280°
2026-05-07 06:46 66.95594 -119.26910 33950 ft 490 kts 280°
2026-05-07 06:46 66.96781 -119.44041 33955 ft 490 kts 280°
2026-05-07 06:47 66.97953 -119.61220 33954 ft 490 kts 280°
2026-05-07 06:47 66.99107 -119.78424 33962 ft 490 kts 279°
2026-05-07 06:48 67.00250 -119.95460 34301 ft 487 kts 282°
2026-05-07 06:48 67.01122 -120.03799 34657 ft 485 kts 288°
2026-05-07 06:48 67.02162 -120.12052 34818 ft 487 kts 289°
2026-05-07 06:49 67.03252 -120.20298 35004 ft 488 kts 289°
2026-05-07 06:49 67.04359 -120.28512 35246 ft 487 kts 290°
2026-05-07 06:49 67.05466 -120.36709 35470 ft 486 kts 290°
2026-05-07 06:49 67.06570 -120.44921 35635 ft 487 kts 290°
2026-05-07 06:50 67.07665 -120.53139 35786 ft 487 kts 289°
2026-05-07 06:50 67.08741 -120.61277 35930 ft 488 kts 289°
2026-05-07 06:50 67.10920 -120.77910 35979 ft 494 kts 289°
2026-05-07 06:51 67.13100 -120.94697 35979 ft 495 kts 289°
2026-05-07 06:51 67.15255 -121.11480 35982 ft 494 kts 289°
2026-05-07 06:52 67.17393 -121.28305 35997 ft 494 kts 289°
2026-05-07 06:52 67.19512 -121.45158 35989 ft 494 kts 289°
2026-05-07 06:53 67.21616 -121.62054 35994 ft 494 kts 289°
2026-05-07 06:53 67.23696 -121.78931 35993 ft 493 kts 288°
2026-05-07 06:54 67.25757 -121.95833 35999 ft 493 kts 288°
2026-05-07 06:54 67.27799 -122.12757 36001 ft 493 kts 288°
2026-05-07 06:55 67.29824 -122.29706 36001 ft 493 kts 288°
2026-05-07 06:55 67.31819 -122.46581 36002 ft 493 kts 288°
2026-05-07 06:56 67.33811 -122.63607 36007 ft 493 kts 287°
2026-05-07 06:56 67.35784 -122.80663 36006 ft 493 kts 287°
2026-05-07 06:57 67.37738 -122.97736 36013 ft 493 kts 287°
2026-05-07 06:57 67.39347 -123.11937 36004 ft 493 kts 287°
2026-05-07 06:58 67.41267 -123.29046 36004 ft 492 kts 287°
2026-05-07 06:58 67.43167 -123.46170 36004 ft 492 kts 287°
2026-05-07 06:59 67.45049 -123.63327 36005 ft 493 kts 287°
2026-05-07 06:59 67.46915 -123.80535 36007 ft 493 kts 286°
2026-05-07 07:00 67.48753 -123.97671 36006 ft 493 kts 286°
2026-05-07 07:00 67.50583 -124.14924 36007 ft 493 kts 286°
2026-05-07 07:01 67.52397 -124.32229 36005 ft 493 kts 286°
2026-05-07 07:01 67.54187 -124.49516 36010 ft 492 kts 286°
2026-05-07 07:02 67.55959 -124.66834 36012 ft 492 kts 285°
2026-05-07 07:02 67.57713 -124.84178 36012 ft 492 kts 285°
2026-05-07 07:03 67.59435 -125.01413 36013 ft 492 kts 285°
2026-05-07 07:03 67.61151 -125.18790 36013 ft 492 kts 285°
2026-05-07 07:04 67.62848 -125.36201 36012 ft 492 kts 285°
2026-05-07 07:04 67.64527 -125.53634 36013 ft 492 kts 285°
2026-05-07 07:05 67.66186 -125.71084 36012 ft 492 kts 285°
2026-05-07 07:05 67.67827 -125.88556 36010 ft 492 kts 284°
2026-05-07 07:06 67.69436 -126.05919 36015 ft 492 kts 284°
2026-05-07 07:06 67.71037 -126.23420 36017 ft 491 kts 284°
2026-05-07 07:07 67.72620 -126.40949 36016 ft 491 kts 284°
2026-05-07 07:07 67.74183 -126.58493 36019 ft 491 kts 284°
2026-05-07 07:08 67.75727 -126.76057 36018 ft 491 kts 284°
2026-05-07 07:08 67.77254 -126.93664 36039 ft 491 kts 284°
2026-05-07 07:09 67.78761 -127.11288 36020 ft 491 kts 283°
2026-05-07 07:09 67.80240 -127.28814 36023 ft 491 kts 283°
2026-05-07 07:10 67.81709 -127.46484 36025 ft 491 kts 283°
2026-05-07 07:10 67.83161 -127.64185 36025 ft 491 kts 283°
2026-05-07 07:11 67.84592 -127.81899 36026 ft 491 kts 283°
2026-05-07 07:11 67.85995 -127.99518 36027 ft 491 kts 283°
2026-05-07 07:12 67.87388 -128.17271 36038 ft 491 kts 283°
2026-05-07 07:12 67.88761 -128.35040 36030 ft 492 kts 282°
2026-05-07 07:13 67.90116 -128.52839 36031 ft 491 kts 282°
2026-05-07 07:13 67.91451 -128.70646 36036 ft 491 kts 282°
2026-05-07 07:14 67.92765 -128.88462 36034 ft 491 kts 282°
2026-05-07 07:14 67.94060 -129.06295 36038 ft 491 kts 282°
2026-05-07 07:15 67.95335 -129.24147 36037 ft 491 kts 282°
2026-05-07 07:15 67.96590 -129.42007 36037 ft 491 kts 281°
2026-05-07 07:16 67.97827 -129.59894 36042 ft 491 kts 281°
2026-05-07 07:16 67.99043 -129.77788 36039 ft 490 kts 281°
2026-05-07 07:17 68.00232 -129.95698 36033 ft 490 kts 280°
2026-05-07 07:17 68.00886 -130.13811 36043 ft 490 kts 276°
2026-05-07 07:18 68.01370 -130.31809 36042 ft 489 kts 275°
2026-05-07 07:18 68.01809 -130.49920 36047 ft 489 kts 275°
2026-05-07 07:19 68.02230 -130.68043 36051 ft 489 kts 275°
2026-05-07 07:19 68.02635 -130.86163 36051 ft 489 kts 275°
2026-05-07 07:20 68.03025 -131.04308 36050 ft 489 kts 274°
2026-05-07 07:20 68.03391 -131.22336 36053 ft 489 kts 274°
2026-05-07 07:21 68.03741 -131.40490 36052 ft 489 kts 274°
2026-05-07 07:21 68.04069 -131.58626 36052 ft 489 kts 274°
2026-05-07 07:22 68.04378 -131.76779 36054 ft 489 kts 274°
2026-05-07 07:22 68.04667 -131.94944 36064 ft 489 kts 274°
2026-05-07 07:23 68.04936 -132.13108 36052 ft 490 kts 274°
2026-05-07 07:23 68.05185 -132.31308 36066 ft 490 kts 273°
2026-05-07 07:24 68.05413 -132.49391 36054 ft 490 kts 273°
2026-05-07 07:24 68.05623 -132.67598 36059 ft 490 kts 273°
2026-05-07 07:25 68.05900 -132.94911 36061 ft 490 kts 272°
2026-05-07 07:26 68.06059 -133.13128 36072 ft 490 kts 272°
2026-05-07 07:26 68.06197 -133.31341 36111 ft 490 kts 272°
2026-05-07 07:27 68.06306 -133.49570 36076 ft 491 kts 272°
2026-05-07 07:27 68.06366 -133.67716 36058 ft 491 kts 271°
2026-05-07 07:28 68.06364 -133.85956 36110 ft 490 kts 271°
2026-05-07 07:28 68.06301 -134.04199 36124 ft 490 kts 271°
2026-05-07 07:29 68.06188 -134.22472 36103 ft 491 kts 270°
2026-05-07 07:29 68.06037 -134.40698 36122 ft 490 kts 270°
2026-05-07 07:30 68.05843 -134.58904 36146 ft 490 kts 270°
2026-05-07 07:30 68.05602 -134.77000 36153 ft 490 kts 269°
2026-05-07 07:31 68.05305 -134.95222 36123 ft 491 kts 269°
2026-05-07 07:31 68.04957 -135.13437 36152 ft 490 kts 268°
2026-05-07 07:32 68.04556 -135.31632 36175 ft 490 kts 268°
2026-05-07 07:32 68.04098 -135.49833 36097 ft 492 kts 268°
2026-05-07 07:33 68.03586 -135.68093 36041 ft 493 kts 267°
2026-05-07 07:33 68.03027 -135.86339 36120 ft 491 kts 267°
2026-05-07 07:34 68.02422 -136.04513 36168 ft 491 kts 266°
2026-05-07 07:34 68.01770 -136.22560 36112 ft 492 kts 266°
2026-05-07 07:35 68.01062 -136.40739 36094 ft 492 kts 265°
2026-05-07 07:35 68.00308 -136.58879 36119 ft 491 kts 265°
2026-05-07 07:36 67.99531 -136.76859 36134 ft 491 kts 265°
2026-05-07 07:36 67.98748 -136.94940 36098 ft 492 kts 265°
2026-05-07 07:37 67.97959 -137.13048 36096 ft 492 kts 265°
2026-05-07 07:37 67.97183 -137.31142 36144 ft 491 kts 265°
2026-05-07 07:38 67.96403 -137.49229 36140 ft 491 kts 265°
2026-05-07 07:38 67.95634 -137.67348 36097 ft 492 kts 265°
2026-05-07 07:39 67.94852 -137.85442 36117 ft 492 kts 265°
2026-05-07 07:39 67.94033 -138.03399 36126 ft 492 kts 264°
2026-05-07 07:40 67.93120 -138.21433 36095 ft 492 kts 263°
2026-05-07 07:40 67.92119 -138.39414 36093 ft 492 kts 263°
2026-05-07 07:41 67.91061 -138.57390 36110 ft 491 kts 262°
2026-05-07 07:41 67.89946 -138.75280 36105 ft 491 kts 262°
2026-05-07 07:42 67.88762 -138.93157 36086 ft 491 kts 261°
2026-05-07 07:42 67.87511 -139.10989 36084 ft 491 kts 261°
2026-05-07 07:43 67.86196 -139.28766 36099 ft 491 kts 260°
2026-05-07 07:43 67.84820 -139.46361 36089 ft 491 kts 259°
2026-05-07 07:44 67.83361 -139.64043 36078 ft 491 kts 259°
2026-05-07 07:44 67.81811 -139.81657 36071 ft 491 kts 258°
2026-05-07 07:45 67.80183 -139.99186 36065 ft 490 kts 257°
2026-05-07 07:45 67.78477 -140.16650 36082 ft 490 kts 257°
2026-05-07 07:46 67.76700 -140.34022 36098 ft 490 kts 256°
2026-05-07 07:46 67.74875 -140.51236 36102 ft 489 kts 256°
2026-05-07 07:47 67.72993 -140.68508 36081 ft 490 kts 256°
2026-05-07 07:47 67.71073 -140.85757 36050 ft 491 kts 255°
2026-05-07 07:48 67.69107 -141.02944 36080 ft 490 kts 255°
2026-05-07 07:48 67.67099 -141.19961 36103 ft 489 kts 254°
2026-05-07 07:49 67.65025 -141.37006 36072 ft 490 kts 254°
2026-05-07 07:49 67.62899 -141.54035 36055 ft 491 kts 253°
2026-05-07 07:50 67.61076 -141.68269 36085 ft 490 kts 253°
2026-05-07 07:50 67.58860 -141.85020 36098 ft 489 kts 252°
2026-05-07 07:51 67.56567 -142.01854 36083 ft 490 kts 252°
2026-05-07 07:51 67.54222 -142.18606 36071 ft 490 kts 251°
2026-05-07 07:52 67.51826 -142.35291 36081 ft 490 kts 251°
2026-05-07 07:52 67.49379 -142.51903 36056 ft 490 kts 250°
2026-05-07 07:53 67.46865 -142.68447 36054 ft 490 kts 250°
2026-05-07 07:53 67.44302 -142.84791 36065 ft 490 kts 249°
2026-05-07 07:54 67.41663 -143.01138 36063 ft 489 kts 249°
2026-05-07 07:54 67.38962 -143.17385 36057 ft 489 kts 248°
2026-05-07 07:55 67.36188 -143.33548 36042 ft 490 kts 248°
2026-05-07 07:55 67.33345 -143.49603 36045 ft 489 kts 247°
2026-05-07 07:56 67.30453 -143.65427 36057 ft 489 kts 246°
2026-05-07 07:56 67.27474 -143.81261 36037 ft 489 kts 246°
2026-05-07 07:57 67.24433 -143.96987 36035 ft 489 kts 245°
2026-05-07 07:57 67.21327 -144.12618 36041 ft 489 kts 245°
2026-05-07 07:58 67.18157 -144.28125 36031 ft 489 kts 244°
2026-05-07 07:58 67.14918 -144.43521 36038 ft 489 kts 243°
2026-05-07 07:59 67.11607 -144.58800 36046 ft 488 kts 243°
2026-05-07 07:59 67.08226 -144.73951 36036 ft 489 kts 242°
2026-05-07 08:00 67.04778 -144.88969 36036 ft 489 kts 242°
2026-05-07 08:00 67.01258 -145.03849 36043 ft 488 kts 241°
2026-05-07 08:01 66.97677 -145.18487 36031 ft 488 kts 240°
2026-05-07 08:01 66.93997 -145.33055 36016 ft 488 kts 239°
2026-05-07 08:02 66.90238 -145.47467 36035 ft 488 kts 238°
2026-05-07 08:02 66.86399 -145.61711 36036 ft 488 kts 238°
2026-05-07 08:03 66.82478 -145.75798 36035 ft 488 kts 237°
2026-05-07 08:03 66.78482 -145.89670 36055 ft 487 kts 236°
2026-05-07 08:04 66.74399 -146.03365 36055 ft 487 kts 235°
2026-05-07 08:04 66.70234 -146.16871 36011 ft 488 kts 234°
2026-05-07 08:05 66.65956 -146.30183 35968 ft 489 kts 233°
2026-05-07 08:05 66.61567 -146.43258 36005 ft 487 kts 232°
2026-05-07 08:06 66.57088 -146.56037 36044 ft 487 kts 231°
2026-05-07 08:06 66.52523 -146.68608 35995 ft 488 kts 230°
2026-05-07 08:07 66.47867 -146.81010 35978 ft 488 kts 229°
2026-05-07 08:07 66.43173 -146.93093 36015 ft 487 kts 228°
2026-05-07 08:08 66.38375 -147.05037 36013 ft 487 kts 227°
2026-05-07 08:08 66.33484 -147.16797 35975 ft 488 kts 227°
2026-05-07 08:09 66.28511 -147.28333 35965 ft 488 kts 226°
2026-05-07 08:09 66.23495 -147.39549 35995 ft 487 kts 225°
2026-05-07 08:10 66.18388 -147.50589 35996 ft 487 kts 224°
2026-05-07 08:10 66.13206 -147.61459 35958 ft 488 kts 223°
2026-05-07 08:11 66.07953 -147.72121 35966 ft 488 kts 223°
2026-05-07 08:11 66.02642 -147.82528 35989 ft 488 kts 221°
2026-05-07 08:12 65.97265 -147.92715 35988 ft 488 kts 221°
2026-05-07 08:12 65.91832 -148.02697 35978 ft 488 kts 220°
2026-05-07 08:13 65.86373 -148.12419 35979 ft 488 kts 219°
2026-05-07 08:13 65.80781 -148.22022 35987 ft 488 kts 218°
2026-05-07 08:14 65.75200 -148.31296 35990 ft 489 kts 218°
2026-05-07 08:14 65.69536 -148.40432 35994 ft 489 kts 217°
2026-05-07 08:15 65.63816 -148.49367 35999 ft 489 kts 216°
2026-05-07 08:15 65.58041 -148.58084 36011 ft 489 kts 216°
2026-05-07 08:16 65.52225 -148.66561 36050 ft 488 kts 215°
2026-05-07 08:16 65.46369 -148.74845 36050 ft 489 kts 214°
2026-05-07 08:17 65.40459 -148.82957 36022 ft 489 kts 213°
2026-05-07 08:17 65.34497 -148.90853 36046 ft 489 kts 213°
2026-05-07 08:18 65.28500 -148.98516 36062 ft 489 kts 212°
2026-05-07 08:18 65.22463 -149.06033 36048 ft 489 kts 212°
2026-05-07 08:19 65.16422 -149.13391 36037 ft 490 kts 211°
2026-05-07 08:19 65.10320 -149.20642 36054 ft 489 kts 211°
2026-05-07 08:20 65.04197 -149.27722 36051 ft 489 kts 210°
2026-05-07 08:20 64.98046 -149.34638 36029 ft 490 kts 210°
2026-05-07 08:21 64.91857 -149.41396 36038 ft 490 kts 209°
2026-05-07 08:21 64.85675 -149.47935 36047 ft 490 kts 208°
2026-05-07 08:22 64.79423 -149.54352 36051 ft 490 kts 208°
2026-05-07 08:22 64.73141 -149.60610 36032 ft 490 kts 207°
2026-05-07 08:23 64.66827 -149.66689 36036 ft 491 kts 207°
2026-05-07 08:23 64.60485 -149.72593 36043 ft 491 kts 206°
2026-05-07 08:24 64.54109 -149.78338 36050 ft 491 kts 205°
2026-05-07 08:24 64.47712 -149.83917 36053 ft 491 kts 205°
2026-05-07 08:25 64.41290 -149.89314 36075 ft 490 kts 204°
2026-05-07 08:25 64.34889 -149.94401 36125 ft 489 kts 203°
2026-05-07 08:26 64.25154 -150.01720 36075 ft 491 kts 202°
2026-05-07 08:26 64.18631 -150.06439 36086 ft 491 kts 202°
2026-05-07 08:27 64.12099 -150.11014 36095 ft 491 kts 201°
2026-05-07 08:27 64.05519 -150.15285 36084 ft 492 kts 200°
2026-05-07 08:28 63.98893 -150.19271 36074 ft 492 kts 199°
2026-05-07 08:28 63.92241 -150.23008 36108 ft 492 kts 199°
2026-05-07 08:29 63.85611 -150.26543 36120 ft 492 kts 198°
2026-05-07 08:29 63.78923 -150.29950 36100 ft 493 kts 198°
2026-05-07 08:30 63.72211 -150.33199 36101 ft 493 kts 197°
2026-05-07 08:30 63.65495 -150.36332 36125 ft 493 kts 197°
2026-05-07 08:31 63.58754 -150.39343 36131 ft 493 kts 196°
2026-05-07 08:31 63.51999 -150.42255 36122 ft 494 kts 196°
2026-05-07 08:32 63.45287 -150.45071 36133 ft 493 kts 196°
2026-05-07 08:32 63.38535 -150.47842 36156 ft 493 kts 196°
2026-05-07 08:33 63.31780 -150.50499 36188 ft 493 kts 195°
2026-05-07 08:33 63.25023 -150.53119 36186 ft 493 kts 195°
2026-05-07 08:34 63.18263 -150.55791 36144 ft 493 kts 196°
2026-05-07 08:34 63.11503 -150.58499 36184 ft 493 kts 196°
2026-05-07 08:35 63.04755 -150.61203 36170 ft 493 kts 196°
2026-05-07 08:35 62.98032 -150.63815 36161 ft 494 kts 195°
2026-05-07 08:36 62.91265 -150.66438 36191 ft 493 kts 196°
2026-05-07 08:36 62.84512 -150.69132 36171 ft 493 kts 196°
2026-05-07 08:37 62.77766 -150.71788 36180 ft 493 kts 195°
2026-05-07 08:37 62.72145 -150.73893 36186 ft 493 kts 195°
2026-05-07 08:38 62.65382 -150.76407 36203 ft 493 kts 195°
2026-05-07 08:38 62.57533 -150.79475 36193 ft 493 kts 196°
2026-05-07 08:39 62.51882 -150.81714 36183 ft 492 kts 196°
2026-05-07 08:39 62.45190 -150.84292 36279 ft 491 kts 196°
2026-05-07 08:40 62.38453 -150.86764 36268 ft 491 kts 195°
2026-05-07 08:40 62.31693 -150.89160 36205 ft 493 kts 195°
2026-05-07 08:41 62.24918 -150.91538 36244 ft 492 kts 195°
2026-05-07 08:41 62.18170 -150.93951 36288 ft 491 kts 195°
2026-05-07 08:42 62.11421 -150.96413 36250 ft 492 kts 195°
2026-05-07 08:42 62.04671 -150.98905 36229 ft 492 kts 196°
2026-05-07 08:43 61.97976 -151.01399 36258 ft 491 kts 196°
2026-05-07 08:43 61.91238 -151.03925 36249 ft 491 kts 196°
2026-05-07 08:44 61.84504 -151.06443 36236 ft 492 kts 196°
2026-05-07 08:44 61.77761 -151.08939 36254 ft 492 kts 196°
2026-05-07 08:45 61.71015 -151.11390 36268 ft 491 kts 195°
2026-05-07 08:45 61.64274 -151.13735 36287 ft 491 kts 195°
2026-05-07 08:46 61.57528 -151.15973 36313 ft 490 kts 195°
2026-05-07 08:46 61.50797 -151.18188 36330 ft 490 kts 195°
2026-05-07 08:47 61.44050 -151.20432 36291 ft 491 kts 195°
2026-05-07 08:47 61.37350 -151.22663 36301 ft 490 kts 195°
2026-05-07 08:48 61.30618 -151.24897 36341 ft 490 kts 195°
2026-05-07 08:48 61.23895 -151.27205 36331 ft 490 kts 196°
2026-05-07 08:49 61.17177 -151.29598 36315 ft 490 kts 196°
2026-05-07 08:49 61.10453 -151.32023 36322 ft 490 kts 196°
2026-05-07 08:50 61.03732 -151.34445 36344 ft 490 kts 196°
2026-05-07 08:50 60.97018 -151.36876 36323 ft 490 kts 196°
2026-05-07 08:51 60.90302 -151.39296 36317 ft 490 kts 196°
2026-05-07 08:51 60.83569 -151.41673 36333 ft 490 kts 196°
2026-05-07 08:52 60.76882 -151.43886 36385 ft 489 kts 195°
2026-05-07 08:52 60.70141 -151.45960 36382 ft 490 kts 194°
2026-05-07 08:53 60.63371 -151.47911 36344 ft 491 kts 194°
2026-05-07 08:53 60.56599 -151.49735 36373 ft 490 kts 193°
2026-05-07 08:54 60.49825 -151.51433 36399 ft 490 kts 193°
2026-05-07 08:54 60.43039 -151.53016 36362 ft 491 kts 193°
2026-05-07 08:55 60.36237 -151.54490 36328 ft 492 kts 192°
2026-05-07 08:55 60.29470 -151.55864 36365 ft 491 kts 192°
2026-05-07 08:56 60.22665 -151.57152 36390 ft 491 kts 191°
2026-05-07 08:56 60.15840 -151.58347 36373 ft 492 kts 191°
2026-05-07 08:57 60.09011 -151.59440 36365 ft 493 kts 191°
2026-05-07 08:57 60.02174 -151.60467 36373 ft 492 kts 190°
2026-05-07 08:58 59.95352 -151.61510 36426 ft 491 kts 191°
2026-05-07 08:58 59.88529 -151.62638 36410 ft 492 kts 191°
2026-05-07 08:59 59.81710 -151.63891 36401 ft 492 kts 192°
2026-05-07 08:59 59.74948 -151.65310 36454 ft 491 kts 192°
2026-05-07 09:00 59.68169 -151.66954 36463 ft 490 kts 193°
2026-05-07 09:00 59.61404 -151.68826 36455 ft 490 kts 194°
2026-05-07 09:01 59.54652 -151.70865 36458 ft 491 kts 195°
2026-05-07 09:01 59.47910 -151.72961 36474 ft 490 kts 195°
2026-05-07 09:02 59.41171 -151.75037 36472 ft 490 kts 194°
2026-05-07 09:02 59.34432 -151.77073 36512 ft 489 kts 194°
2026-05-07 09:03 59.27712 -151.79039 36598 ft 488 kts 194°
2026-05-07 09:03 59.21030 -151.80980 36540 ft 489 kts 194°
2026-05-07 09:04 59.14296 -151.83027 36495 ft 490 kts 195°
2026-05-07 09:04 59.07575 -151.85176 36561 ft 488 kts 195°
2026-05-07 09:05 59.00873 -151.87392 36589 ft 488 kts 195°
2026-05-07 09:05 58.94175 -151.89641 36543 ft 489 kts 196°
2026-05-07 09:06 58.87466 -151.91884 36533 ft 489 kts 195°
2026-05-07 09:06 58.80758 -151.94056 36559 ft 488 kts 195°
2026-05-07 09:07 58.74053 -151.96138 36594 ft 488 kts 195°
2026-05-07 09:07 58.67332 -151.98159 36561 ft 489 kts 194°
2026-05-07 09:08 58.60595 -152.00111 36551 ft 489 kts 194°
2026-05-07 09:08 58.53902 -152.01954 36571 ft 488 kts 194°
2026-05-07 09:09 58.47183 -152.03746 36658 ft 486 kts 194°
2026-05-07 09:09 58.40466 -152.05507 36630 ft 488 kts 193°
2026-05-07 09:10 58.33728 -152.07245 36581 ft 489 kts 193°
2026-05-07 09:10 58.26990 -152.08928 36611 ft 488 kts 193°
2026-05-07 09:11 58.20279 -152.10827 36604 ft 487 kts 195°
2026-05-07 09:11 58.13616 -152.13158 36620 ft 486 kts 197°
2026-05-07 09:12 58.06992 -152.15778 36634 ft 486 kts 198°
2026-05-07 09:12 58.00385 -152.18562 36617 ft 486 kts 198°
2026-05-07 09:13 57.93832 -152.21403 36606 ft 486 kts 199°
2026-05-07 09:13 57.87239 -152.24284 36615 ft 486 kts 199°
2026-05-07 09:14 57.80637 -152.27151 36626 ft 486 kts 198°
2026-05-07 09:14 57.74027 -152.29969 36616 ft 486 kts 198°
2026-05-07 09:15 57.67465 -152.32635 36671 ft 485 kts 197°
2026-05-07 09:15 57.60857 -152.35178 36693 ft 485 kts 197°
2026-05-07 09:16 57.54221 -152.37651 36651 ft 486 kts 197°
2026-05-07 09:16 57.47582 -152.40095 36663 ft 486 kts 196°
2026-05-07 09:17 57.40923 -152.42156 36743 ft 485 kts 194°
2026-05-07 09:17 57.34205 -152.43700 36679 ft 488 kts 192°
2026-05-07 09:18 57.27473 -152.44893 36627 ft 489 kts 190°
2026-05-07 09:18 57.20691 -152.45804 36686 ft 488 kts 189°
2026-05-07 09:19 57.13903 -152.46473 36714 ft 488 kts 188°
2026-05-07 09:19 57.07104 -152.46975 36668 ft 489 kts 188°
2026-05-07 09:20 57.00299 -152.47343 36666 ft 489 kts 187°
2026-05-07 09:20 56.93508 -152.47596 36733 ft 487 kts 187°
2026-05-07 09:21 56.86734 -152.47762 36791 ft 486 kts 186°
2026-05-07 09:21 56.79956 -152.47859 36712 ft 488 kts 186°
2026-05-07 09:22 56.73170 -152.47878 36721 ft 487 kts 186°
2026-05-07 09:22 56.66447 -152.47784 36773 ft 486 kts 185°
2026-05-07 09:23 56.59672 -152.47615 36749 ft 487 kts 185°
2026-05-07 09:23 56.52884 -152.47395 36726 ft 487 kts 185°
2026-05-07 09:24 56.46103 -152.47100 36728 ft 487 kts 184°
2026-05-07 09:24 56.39331 -152.46723 36766 ft 485 kts 184°
2026-05-07 09:25 56.32596 -152.46205 36862 ft 484 kts 183°
2026-05-07 09:25 56.27003 -152.45687 36831 ft 485 kts 183°
2026-05-07 09:26 56.20252 -152.44990 36756 ft 486 kts 182°
2026-05-07 09:26 56.12366 -152.44065 36780 ft 485 kts 182°
2026-05-07 09:27 56.05675 -152.43183 36815 ft 485 kts 181°
2026-05-07 09:28 55.96711 -152.41897 36772 ft 486 kts 181°
2026-05-07 09:28 55.89979 -152.40828 36732 ft 485 kts 180°
2026-05-07 09:29 55.83286 -152.39563 36900 ft 481 kts 179°
2026-05-07 09:29 55.76648 -152.38103 36947 ft 481 kts 179°
2026-05-07 09:30 55.69989 -152.36538 36800 ft 484 kts 178°
2026-05-07 09:30 55.63319 -152.34872 36797 ft 483 kts 178°
2026-05-07 09:31 55.56684 -152.33050 36869 ft 482 kts 177°
2026-05-07 09:31 55.50074 -152.31114 36869 ft 482 kts 176°
2026-05-07 09:32 55.43488 -152.29104 36814 ft 483 kts 176°
2026-05-07 09:32 55.36899 -152.26953 36897 ft 480 kts 175°
2026-05-07 09:33 55.30341 -152.24680 36927 ft 480 kts 175°
2026-05-07 09:33 55.23781 -152.22322 36839 ft 482 kts 174°
2026-05-07 09:34 55.17205 -152.19884 36826 ft 482 kts 174°
2026-05-07 09:34 55.10659 -152.17366 36882 ft 481 kts 173°
2026-05-07 09:35 55.04124 -152.14792 36875 ft 482 kts 173°
2026-05-07 09:35 54.97594 -152.12168 36860 ft 481 kts 173°
2026-05-07 09:36 54.91118 -152.09512 36884 ft 481 kts 173°
2026-05-07 09:36 54.84602 -152.06830 36868 ft 481 kts 173°
2026-05-07 09:37 54.78085 -152.04164 36852 ft 481 kts 173°
2026-05-07 09:37 54.71561 -152.01521 36873 ft 481 kts 173°
2026-05-07 09:38 54.65046 -151.98930 36875 ft 481 kts 173°
2026-05-07 09:38 54.58516 -151.96394 36853 ft 480 kts 173°
2026-05-07 09:39 54.51999 -151.93889 36885 ft 479 kts 173°
2026-05-07 09:39 54.45520 -151.91453 36873 ft 479 kts 174°
2026-05-07 09:40 54.38987 -151.89092 36845 ft 480 kts 174°
2026-05-07 09:40 54.32447 -151.86822 36852 ft 479 kts 175°
2026-05-07 09:41 54.25897 -151.84640 36859 ft 479 kts 175°
2026-05-07 09:41 54.19353 -151.82559 36839 ft 479 kts 175°
2026-05-07 09:42 54.12795 -151.80587 36825 ft 478 kts 176°
2026-05-07 09:42 54.06229 -151.78732 36827 ft 478 kts 176°
2026-05-07 09:43 53.99656 -151.76993 36825 ft 478 kts 177°
2026-05-07 09:43 53.93081 -151.75367 36822 ft 477 kts 178°
2026-05-07 09:44 53.86495 -151.73855 36810 ft 477 kts 178°
2026-05-07 09:44 53.79950 -151.72477 36785 ft 477 kts 179°
2026-05-07 09:45 53.73380 -151.71144 36885 ft 473 kts 179°
2026-05-07 09:45 53.66852 -151.69814 36937 ft 472 kts 179°
2026-05-07 09:46 53.60315 -151.68588 36840 ft 473 kts 180°
2026-05-07 09:46 53.53756 -151.67501 36792 ft 473 kts 180°
2026-05-07 09:47 53.47211 -151.66532 36835 ft 471 kts 181°
2026-05-07 09:47 53.40676 -151.65679 36834 ft 471 kts 181°
2026-05-07 09:48 53.34162 -151.65005 36744 ft 472 kts 183°
2026-05-07 09:48 53.27628 -151.64494 36864 ft 467 kts 183°
2026-05-07 09:49 53.21161 -151.64110 36965 ft 465 kts 184°
2026-05-07 09:49 53.14675 -151.63866 36821 ft 467 kts 185°
2026-05-07 09:50 53.08167 -151.63753 36750 ft 467 kts 185°
2026-05-07 09:50 53.01681 -151.63709 36831 ft 465 kts 185°
2026-05-07 09:51 52.95214 -151.63720 36840 ft 465 kts 186°
2026-05-07 09:51 52.88777 -151.63816 36767 ft 466 kts 186°
2026-05-07 09:52 52.82302 -151.63986 36750 ft 463 kts 187°
2026-05-07 09:52 52.79083 -151.64076 36857 ft 460 kts 187°
2026-05-07 09:52 52.75895 -151.64161 36997 ft 457 kts 187°
2026-05-07 09:53 52.69531 -151.64359 36959 ft 458 kts 187°
2026-05-07 09:53 52.66338 -151.64493 36837 ft 460 kts 187°
2026-05-07 09:53 52.63128 -151.64647 36754 ft 461 kts 187°
2026-05-07 09:54 52.56762 -151.64961 36791 ft 459 kts 187°
2026-05-07 09:54 52.50391 -151.65250 36894 ft 457 kts 187°
2026-05-07 09:55 52.44024 -151.65540 36819 ft 458 kts 187°
2026-05-07 09:55 52.37643 -151.65850 36739 ft 459 kts 187°
2026-05-07 09:56 52.31267 -151.66135 36764 ft 457 kts 187°
2026-05-07 09:56 52.24973 -151.66163 36941 ft 453 kts 185°
2026-05-07 09:57 52.18643 -151.65814 36963 ft 453 kts 184°
2026-05-07 09:57 52.12356 -151.65253 36792 ft 456 kts 183°
2026-05-07 09:58 52.06024 -151.64481 36794 ft 455 kts 182°
2026-05-07 09:58 51.99724 -151.63479 36873 ft 454 kts 181°
2026-05-07 09:59 51.93425 -151.62268 36800 ft 456 kts 180°
2026-05-07 09:59 51.87125 -151.60845 36749 ft 457 kts 178°
2026-05-07 10:00 51.80875 -151.59033 36825 ft 455 kts 175°
2026-05-07 10:00 51.74723 -151.56612 36907 ft 456 kts 173°
2026-05-07 10:01 51.68646 -151.53759 36771 ft 460 kts 171°
2026-05-07 10:01 51.62555 -151.50492 36728 ft 461 kts 168°
2026-05-07 10:02 51.56550 -151.46847 36806 ft 461 kts 167°
2026-05-07 10:02 51.50627 -151.42852 36767 ft 462 kts 165°
2026-05-07 10:03 51.44794 -151.38438 36748 ft 464 kts 162°
2026-05-07 10:03 51.39102 -151.33642 36761 ft 466 kts 160°
2026-05-07 10:04 51.33492 -151.28379 36738 ft 468 kts 157°
2026-05-07 10:04 51.27992 -151.22755 36731 ft 470 kts 155°
2026-05-07 10:05 51.22599 -151.16848 36726 ft 470 kts 154°
2026-05-07 10:05 51.17334 -151.10694 36848 ft 469 kts 152°
2026-05-07 10:06 51.12169 -151.04318 36803 ft 471 kts 151°
2026-05-07 10:06 51.07065 -150.97714 36722 ft 474 kts 149°
2026-05-07 10:07 51.02064 -150.90875 36719 ft 474 kts 148°
2026-05-07 10:07 50.97227 -150.83934 36879 ft 470 kts 147°
2026-05-07 10:08 50.92434 -150.76863 36900 ft 471 kts 146°
2026-05-07 10:08 50.87670 -150.69657 36757 ft 475 kts 146°
2026-05-07 10:09 50.82975 -150.62285 36738 ft 475 kts 144°
2026-05-07 10:09 50.78424 -150.54742 36865 ft 472 kts 143°
2026-05-07 10:09 50.76217 -150.50905 36980 ft 471 kts 142°
2026-05-07 10:10 50.74049 -150.47032 37027 ft 471 kts 141°
2026-05-07 10:10 50.69770 -150.39149 36880 ft 475 kts 140°
2026-05-07 10:11 50.65545 -150.31059 36755 ft 478 kts 139°
2026-05-07 10:11 50.61480 -150.22856 36818 ft 477 kts 137°
2026-05-07 10:12 50.57538 -150.14433 36887 ft 478 kts 136°
2026-05-07 10:12 50.53708 -150.05833 36812 ft 481 kts 134°
2026-05-07 10:13 50.49987 -149.97181 36783 ft 481 kts 134°
2026-05-07 10:13 50.46332 -149.88360 36813 ft 480 kts 133°
2026-05-07 10:14 50.42848 -149.79455 36980 ft 478 kts 131°
2026-05-07 10:14 50.39487 -149.70420 36920 ft 481 kts 130°
2026-05-07 10:15 50.36215 -149.61230 36792 ft 484 kts 129°
2026-05-07 10:15 50.33071 -149.51890 36788 ft 484 kts 127°
2026-05-07 10:16 50.30108 -149.42444 36928 ft 483 kts 126°
2026-05-07 10:16 50.27316 -149.32934 36917 ft 486 kts 124°
2026-05-07 10:17 50.24624 -149.23209 36799 ft 489 kts 123°
2026-05-07 10:17 50.22069 -149.13336 36779 ft 490 kts 122°
2026-05-07 10:18 50.19697 -149.03385 36911 ft 489 kts 120°
2026-05-07 10:18 50.17495 -148.93394 36914 ft 491 kts 119°
2026-05-07 10:19 50.15404 -148.83221 36828 ft 494 kts 117°
2026-05-07 10:19 50.13455 -148.72941 36786 ft 495 kts 116°
2026-05-07 10:20 50.11943 -148.64269 36843 ft 495 kts 115°
2026-05-07 10:20 50.10274 -148.53919 36841 ft 497 kts 114°
2026-05-07 10:21 50.08699 -148.43400 36767 ft 500 kts 113°
2026-05-07 10:21 50.07237 -148.32794 36797 ft 501 kts 112°
2026-05-07 10:22 50.05906 -148.22147 36816 ft 501 kts 111°
2026-05-07 10:22 50.04665 -148.11433 36813 ft 503 kts 110°
2026-05-07 10:23 50.03523 -148.00750 36801 ft 505 kts 109°
2026-05-07 10:23 50.02474 -147.89940 36831 ft 505 kts 108°
2026-05-07 10:24 50.01534 -147.79115 36837 ft 506 kts 107°
2026-05-07 10:24 50.00695 -147.68248 36873 ft 506 kts 106°
2026-05-07 10:25 49.99950 -147.57352 36879 ft 507 kts 105°
2026-05-07 10:25 49.99292 -147.46420 36878 ft 508 kts 105°
2026-05-07 10:26 49.98724 -147.35518 36884 ft 509 kts 104°
2026-05-07 10:26 49.98257 -147.24532 36850 ft 511 kts 103°
2026-05-07 10:27 49.97906 -147.13494 36843 ft 512 kts 102°
2026-05-07 10:27 49.97646 -147.02418 36868 ft 513 kts 102°
2026-05-07 10:28 49.97457 -146.91345 36912 ft 513 kts 101°
2026-05-07 10:28 49.97318 -146.80322 36918 ft 514 kts 101°
2026-05-07 10:29 49.97209 -146.69220 36886 ft 514 kts 101°
2026-05-07 10:29 49.97118 -146.58100 36911 ft 514 kts 101°
2026-05-07 10:30 49.97015 -146.41427 36943 ft 515 kts 100°
2026-05-07 10:30 49.96946 -146.30279 36842 ft 518 kts 101°
2026-05-07 10:31 49.96865 -146.19079 36822 ft 517 kts 100°
2026-05-07 10:31 49.96802 -146.07937 36994 ft 514 kts 100°
2026-05-07 10:32 49.96759 -145.96821 37027 ft 515 kts 100°
2026-05-07 10:32 49.96696 -145.85680 36919 ft 517 kts 100°
2026-05-07 10:33 49.96622 -145.74509 36920 ft 517 kts 100°
2026-05-07 10:33 49.96565 -145.63436 37002 ft 515 kts 100°
2026-05-07 10:34 49.96523 -145.52284 36954 ft 518 kts 100°
2026-05-07 10:34 49.96477 -145.41066 36841 ft 521 kts 100°
2026-05-07 10:35 49.96449 -145.29833 36913 ft 519 kts 99°
2026-05-07 10:35 49.96467 -145.18630 37029 ft 518 kts 99°
2026-05-07 10:36 49.96515 -145.07429 37024 ft 518 kts 99°
2026-05-07 10:36 49.96583 -144.96241 37049 ft 518 kts 99°
2026-05-07 10:37 49.96647 -144.85048 37053 ft 518 kts 99°
2026-05-07 10:37 49.96664 -144.73841 36966 ft 520 kts 99°
2026-05-07 10:38 49.96640 -144.62560 36895 ft 522 kts 99°
2026-05-07 10:38 49.96624 -144.51315 36992 ft 519 kts 99°
2026-05-07 10:39 49.96652 -144.40119 37133 ft 517 kts 99°
2026-05-07 10:39 49.96690 -144.28996 37074 ft 520 kts 99°
2026-05-07 10:40 49.96705 -144.17749 37003 ft 521 kts 99°
2026-05-07 10:40 49.96722 -144.06521 37059 ft 519 kts 99°
2026-05-07 10:41 49.96758 -143.95283 37065 ft 520 kts 99°
2026-05-07 10:41 49.96796 -143.84025 37010 ft 522 kts 99°
2026-05-07 10:42 49.96830 -143.72754 37031 ft 522 kts 99°
2026-05-07 10:42 49.96890 -143.61494 37109 ft 521 kts 99°
2026-05-07 10:43 49.96959 -143.50237 37121 ft 521 kts 99°
2026-05-07 10:43 49.97009 -143.38980 37095 ft 521 kts 99°
2026-05-07 10:44 49.97032 -143.27834 37160 ft 519 kts 99°
2026-05-07 10:44 49.97021 -143.16583 37039 ft 523 kts 99°
2026-05-07 10:45 49.96955 -143.05244 36933 ft 525 kts 99°
2026-05-07 10:45 49.96878 -142.93916 37059 ft 523 kts 99°
2026-05-07 10:46 49.96812 -142.82654 37148 ft 521 kts 99°
2026-05-07 10:46 49.96720 -142.71367 37101 ft 523 kts 100°
2026-05-07 10:47 49.96587 -142.60048 37061 ft 524 kts 100°
2026-05-07 10:47 49.96432 -142.48742 37140 ft 523 kts 100°
2026-05-07 10:48 49.96250 -142.37498 37068 ft 526 kts 101°
2026-05-07 10:48 49.96014 -142.26136 36979 ft 526 kts 101°
2026-05-07 10:49 49.95775 -142.14804 37136 ft 523 kts 101°
2026-05-07 10:49 49.95548 -142.03509 37192 ft 523 kts 101°
2026-05-07 10:50 49.95302 -141.92176 37119 ft 525 kts 101°
2026-05-07 10:50 49.95035 -141.80844 37112 ft 525 kts 101°
2026-05-07 10:51 49.94760 -141.69540 37179 ft 523 kts 101°
2026-05-07 10:51 49.94479 -141.58337 37235 ft 522 kts 101°
2026-05-07 10:52 49.94179 -141.47056 37190 ft 524 kts 101°
2026-05-07 10:52 49.93863 -141.35746 37168 ft 524 kts 101°
2026-05-07 10:53 49.93548 -141.24465 37210 ft 523 kts 101°
2026-05-07 10:53 49.93236 -141.13186 37223 ft 522 kts 101°
2026-05-07 10:54 49.92918 -141.01925 37218 ft 523 kts 101°
2026-05-07 10:54 49.92590 -140.90717 37164 ft 524 kts 101°
2026-05-07 10:55 49.92229 -140.79396 37087 ft 526 kts 102°
2026-05-07 10:55 49.91852 -140.68055 37116 ft 525 kts 102°
2026-05-07 10:56 49.91483 -140.56750 37167 ft 524 kts 102°
2026-05-07 10:56 49.91113 -140.45441 37156 ft 525 kts 102°
2026-05-07 10:57 49.90733 -140.34105 37137 ft 526 kts 102°
2026-05-07 10:57 49.90351 -140.22840 37173 ft 525 kts 102°
2026-05-07 10:58 49.89965 -140.11514 37189 ft 526 kts 102°
2026-05-07 10:58 49.89559 -140.00141 37078 ft 529 kts 102°
2026-05-07 10:59 49.89138 -139.88735 37100 ft 529 kts 102°
2026-05-07 10:59 49.88731 -139.77370 37223 ft 527 kts 102°
2026-05-07 11:00 49.88327 -139.66020 37232 ft 528 kts 102°
2026-05-07 11:00 49.87906 -139.54713 37144 ft 529 kts 102°
2026-05-07 11:01 49.87474 -139.43306 37142 ft 529 kts 102°
2026-05-07 11:01 49.87053 -139.31901 37136 ft 531 kts 102°
2026-05-07 11:02 49.86628 -139.20421 37034 ft 534 kts 101°
2026-05-07 11:02 49.86212 -139.08926 37101 ft 533 kts 101°
2026-05-07 11:03 49.85827 -138.97467 37196 ft 532 kts 101°
2026-05-07 11:03 49.85455 -138.85994 37188 ft 534 kts 101°
2026-05-07 11:04 49.85075 -138.74496 37143 ft 535 kts 101°
2026-05-07 11:04 49.84700 -138.63044 37192 ft 534 kts 101°
2026-05-07 11:05 49.84286 -138.51518 37113 ft 537 kts 101°
2026-05-07 11:05 49.83815 -138.39936 37045 ft 538 kts 102°
2026-05-07 11:06 49.83329 -138.28399 37184 ft 536 kts 102°
2026-05-07 11:06 49.82849 -138.16886 37248 ft 536 kts 102°
2026-05-07 11:07 49.82357 -138.05334 37195 ft 538 kts 102°
2026-05-07 11:07 49.81857 -137.93780 37190 ft 538 kts 102°
2026-05-07 11:08 49.81373 -137.82293 37186 ft 538 kts 101°
2026-05-07 11:08 49.80911 -137.70702 37161 ft 540 kts 101°
2026-05-07 11:09 49.80477 -137.59090 37194 ft 540 kts 101°
2026-05-07 11:09 49.80080 -137.47498 37235 ft 539 kts 100°
2026-05-07 11:10 49.79770 -137.37775 37261 ft 540 kts 100°
2026-05-07 11:10 49.79421 -137.26237 37212 ft 540 kts 100°
2026-05-07 11:11 49.79083 -137.14618 37263 ft 540 kts 99°
2026-05-07 11:11 49.78755 -137.02976 37200 ft 542 kts 99°
2026-05-07 11:12 49.78438 -136.91292 37175 ft 543 kts 99°
2026-05-07 11:12 49.78157 -136.79632 37256 ft 542 kts 99°
2026-05-07 11:13 49.77919 -136.67974 37280 ft 542 kts 98°
2026-05-07 11:13 49.77708 -136.56322 37308 ft 541 kts 98°
2026-05-07 11:14 49.77506 -136.44677 37312 ft 542 kts 98°
2026-05-07 11:14 49.77271 -136.33036 37144 ft 546 kts 98°
2026-05-07 11:15 49.77010 -136.21291 37130 ft 546 kts 98°
2026-05-07 11:15 49.76778 -136.09575 37260 ft 543 kts 98°
2026-05-07 11:16 49.76600 -135.97915 37390 ft 541 kts 97°
2026-05-07 11:16 49.76458 -135.86254 37344 ft 543 kts 97°
2026-05-07 11:17 49.76316 -135.74551 37234 ft 546 kts 97°
2026-05-07 11:17 49.76162 -135.62774 37108 ft 549 kts 97°
2026-05-07 11:18 49.76030 -135.51040 37191 ft 546 kts 97°
2026-05-07 11:18 49.75954 -135.39322 37328 ft 544 kts 96°
2026-05-07 11:19 49.75924 -135.27619 37339 ft 545 kts 96°
2026-05-07 11:19 49.75895 -135.15866 37248 ft 547 kts 96°
2026-05-07 11:20 49.75836 -135.04085 37162 ft 549 kts 96°
2026-05-07 11:20 49.75727 -134.92267 37140 ft 550 kts 96°
2026-05-07 11:21 49.75605 -134.80440 37231 ft 548 kts 96°
2026-05-07 11:21 49.75483 -134.68741 37294 ft 548 kts 96°
2026-05-07 11:22 49.75337 -134.56937 37250 ft 549 kts 97°
2026-05-07 11:22 49.75160 -134.45125 37236 ft 549 kts 97°
2026-05-07 11:23 49.74951 -134.33321 37294 ft 548 kts 97°
2026-05-07 11:23 49.74713 -134.21540 37310 ft 548 kts 97°
2026-05-07 11:24 49.74440 -134.09761 37289 ft 549 kts 98°
2026-05-07 11:24 49.74136 -133.97964 37280 ft 549 kts 98°
2026-05-07 11:25 49.73811 -133.86191 37308 ft 548 kts 98°
2026-05-07 11:25 49.73465 -133.74398 37241 ft 551 kts 98°
2026-05-07 11:26 49.73105 -133.62610 37133 ft 553 kts 98°
2026-05-07 11:26 49.72752 -133.50760 37217 ft 551 kts 98°
2026-05-07 11:27 49.72431 -133.38958 37353 ft 549 kts 98°
2026-05-07 11:27 49.72105 -133.27152 37290 ft 551 kts 98°
2026-05-07 11:28 49.71740 -133.15296 37215 ft 553 kts 98°
2026-05-07 11:28 49.71368 -133.03406 37144 ft 554 kts 97°
2026-05-07 11:29 49.71031 -132.91513 37198 ft 553 kts 97°
2026-05-07 11:29 49.70757 -132.79665 37325 ft 551 kts 97°
2026-05-07 11:30 49.70510 -132.67892 37291 ft 552 kts 97°
2026-05-07 11:30 49.70250 -132.56005 37221 ft 554 kts 97°
2026-05-07 11:31 49.69983 -132.44099 37186 ft 556 kts 96°
2026-05-07 11:31 49.69743 -132.32111 37096 ft 558 kts 96°
2026-05-07 11:32 49.69535 -132.20150 37208 ft 556 kts 96°
2026-05-07 11:32 49.69447 -132.14254 37263 ft 555 kts 95°
2026-05-07 11:33 49.69282 -132.02338 37267 ft 556 kts 95°
2026-05-07 11:33 49.69112 -131.90379 37224 ft 557 kts 95°
2026-05-07 11:34 49.68899 -131.78370 37135 ft 560 kts 96°
2026-05-07 11:34 49.68645 -131.66341 37130 ft 559 kts 96°
2026-05-07 11:34 49.68520 -131.60344 37236 ft 557 kts 95°
2026-05-07 11:35 49.68404 -131.54382 37327 ft 555 kts 95°
2026-05-07 11:35 49.68182 -131.42453 37352 ft 556 kts 95°
2026-05-07 11:36 49.67953 -131.30566 37228 ft 559 kts 95°
2026-05-07 11:36 49.67706 -131.18539 37157 ft 561 kts 95°
2026-05-07 11:37 49.67449 -131.06504 37175 ft 560 kts 95°
2026-05-07 11:37 49.67226 -130.94478 37231 ft 560 kts 95°
2026-05-07 11:38 49.67039 -130.82456 37243 ft 560 kts 95°
2026-05-07 11:38 49.66879 -130.70424 37221 ft 561 kts 94°
2026-05-07 11:39 49.66739 -130.58458 37210 ft 562 kts 94°
2026-05-07 11:39 49.66598 -130.46372 37189 ft 562 kts 94°
2026-05-07 11:40 49.66474 -130.34290 37195 ft 562 kts 94°
2026-05-07 11:40 49.66382 -130.22225 37194 ft 563 kts 94°
2026-05-07 11:41 49.66312 -130.10137 37198 ft 563 kts 94°
2026-05-07 11:41 49.66245 -129.98029 37214 ft 564 kts 94°
2026-05-07 11:42 49.66144 -129.85902 37173 ft 565 kts 94°
2026-05-07 11:42 49.66028 -129.73873 37206 ft 564 kts 94°
2026-05-07 11:43 49.65905 -129.61762 37219 ft 564 kts 94°
2026-05-07 11:43 49.65770 -129.49644 37201 ft 565 kts 94°
2026-05-07 11:44 49.65614 -129.37513 37185 ft 566 kts 94°
2026-05-07 11:44 49.65431 -129.25364 37173 ft 566 kts 94°
2026-05-07 11:45 49.65239 -129.13202 37215 ft 566 kts 94°
2026-05-07 11:45 49.65044 -129.01075 37202 ft 566 kts 94°
2026-05-07 11:46 49.64844 -128.88950 37228 ft 565 kts 94°
2026-05-07 11:46 49.64633 -128.76814 37202 ft 567 kts 94°
2026-05-07 11:47 49.64393 -128.64716 37141 ft 568 kts 94°
2026-05-07 11:47 49.64146 -128.52535 37192 ft 567 kts 94°
2026-05-07 11:48 49.63910 -128.40398 37238 ft 566 kts 94°
2026-05-07 11:48 49.63677 -128.28251 37194 ft 566 kts 94°
2026-05-07 11:49 49.63441 -128.16112 37224 ft 566 kts 94°
2026-05-07 11:49 49.63208 -128.03977 37242 ft 565 kts 94°
2026-05-07 11:50 49.62980 -127.91846 37217 ft 566 kts 94°
2026-05-07 11:50 49.62763 -127.79714 37209 ft 566 kts 94°
2026-05-07 11:51 49.62561 -127.67581 37223 ft 565 kts 94°
2026-05-07 11:51 49.62342 -127.55446 37157 ft 567 kts 94°
2026-05-07 11:52 49.62097 -127.43272 37099 ft 568 kts 94°
2026-05-07 11:52 49.61856 -127.31183 37145 ft 567 kts 94°
2026-05-07 11:53 49.61626 -127.19049 37175 ft 566 kts 94°
2026-05-07 11:53 49.61400 -127.06894 37158 ft 567 kts 94°
2026-05-07 11:54 49.61152 -126.94705 37095 ft 569 kts 94°
2026-05-07 11:54 49.60889 -126.82536 37146 ft 567 kts 94°
2026-05-07 11:55 49.60622 -126.70414 37229 ft 565 kts 94°
2026-05-07 11:55 49.60335 -126.58295 37176 ft 567 kts 94°
2026-05-07 11:56 49.60022 -126.46133 37144 ft 569 kts 94°
2026-05-07 11:56 49.59673 -126.34012 37134 ft 569 kts 94°
2026-05-07 11:57 49.59251 -126.21846 37130 ft 568 kts 95°
2026-05-07 11:57 49.58585 -126.09732 37202 ft 567 kts 99°
2026-05-07 11:58 49.57518 -125.97695 37178 ft 567 kts 101°
2026-05-07 11:58 49.56432 -125.87715 37198 ft 568 kts 102°
2026-05-07 11:59 49.54897 -125.75771 37221 ft 569 kts 105°
2026-05-07 11:59 49.52968 -125.63950 37159 ft 569 kts 109°
2026-05-07 12:00 49.50714 -125.52278 37220 ft 569 kts 110°
2026-05-07 12:00 49.48302 -125.40668 37154 ft 570 kts 112°
2026-05-07 12:01 49.45748 -125.29217 37213 ft 568 kts 113°
2026-05-07 12:01 49.43269 -125.17678 37277 ft 569 kts 110°
2026-05-07 12:02 49.41002 -125.06048 37205 ft 569 kts 108°
2026-05-07 12:02 49.39084 -124.94243 37126 ft 570 kts 105°
2026-05-07 12:03 49.37486 -124.82337 37163 ft 569 kts 103°
2026-05-07 12:03 49.36179 -124.70378 37175 ft 568 kts 100°
2026-05-07 12:04 49.35232 -124.58357 37103 ft 568 kts 97°
2026-05-07 12:04 49.34559 -124.46319 37166 ft 566 kts 95°
2026-05-07 12:05 49.34073 -124.34332 37142 ft 566 kts 94°
2026-05-07 12:05 49.33713 -124.22260 37120 ft 566 kts 93°
2026-05-07 12:06 49.33455 -124.10191 37127 ft 566 kts 92°
2026-05-07 12:06 49.33282 -123.98132 37143 ft 565 kts 91°
2026-05-07 12:07 49.33170 -123.86067 37119 ft 566 kts 91°
2026-05-07 12:07 49.33097 -123.73992 37125 ft 565 kts 90°
2026-05-07 12:08 49.33070 -123.62028 37173 ft 564 kts 90°
2026-05-07 12:08 49.33088 -123.50000 37168 ft 564 kts 90°
2026-05-07 12:09 49.33146 -123.37950 37160 ft 565 kts 89°
2026-05-07 12:09 49.33235 -123.25888 37127 ft 565 kts 89°
2026-05-07 12:10 49.33368 -123.13837 37151 ft 564 kts 88°
2026-05-07 12:10 49.33553 -123.01891 37156 ft 564 kts 88°
2026-05-07 12:11 49.33778 -122.89883 37221 ft 563 kts 88°
2026-05-07 12:11 49.33804 -122.77837 37204 ft 565 kts 90°
2026-05-07 12:12 49.33596 -122.65760 37161 ft 567 kts 92°
2026-05-07 12:12 49.33291 -122.53697 37200 ft 566 kts 92°
2026-05-07 12:13 49.33053 -122.41642 37219 ft 565 kts 91°
2026-05-07 12:13 49.32895 -122.29659 37189 ft 565 kts 90°
2026-05-07 12:14 49.32857 -122.17612 37181 ft 564 kts 89°
2026-05-07 12:14 49.32862 -122.05586 37143 ft 565 kts 91°
2026-05-07 12:15 49.32557 -121.93537 37146 ft 566 kts 93°
2026-05-07 12:15 49.32081 -121.81508 37211 ft 566 kts 94°
2026-05-07 12:16 49.31533 -121.69453 37136 ft 567 kts 89°
2026-05-07 12:16 49.31985 -121.63484 36060 ft 568 kts 70°
2026-05-07 12:16 49.33560 -121.57884 33328 ft 577 kts 56°
2026-05-07 12:16 49.35481 -121.52853 25488 ft 494 kts 49°
2026-05-07 12:17 49.39156 -121.47354 11145 ft 398 kts 46°
2026-05-07 12:17 49.40703 -121.44256 5449 ft 314 kts 48°
2026-05-07 12:17 49.43141 -121.41443 1591 ft 427 kts 45°
2026-05-07 12:18 49.44422 -121.38938 2907 ft 425 kts 58°
2026-05-07 12:18 49.45606 -121.34870 4944 ft 426 kts 75°
2026-05-07 12:18 49.45898 -121.31486 4681 ft 426 kts 90°
2026-05-07 12:18 49.45428 -121.27013 4784 ft 413 kts 109°
2026-05-07 12:19 49.44089 -121.22814 4657 ft 428 kts 121°
2026-05-07 12:19 49.42503 -121.19624 5524 ft 427 kts 136°
2026-05-07 12:19 49.40953 -121.17707 6210 ft 416 kts 148°
2026-05-07 12:19 49.38194 -121.16002 5650 ft 396 kts 169°
2026-05-07 12:20 49.34972 -121.15034 3029 ft 392 kts 177°
2026-05-07 12:20 49.32505 -121.15290 4700 ft 420 kts 194°
2026-05-07 12:20 49.30276 -121.16417 6761 ft 420 kts 206°
2026-05-07 12:20 49.28108 -121.18515 6842 ft 399 kts 221°
2026-05-07 12:21 49.26067 -121.21524 5060 ft 390 kts 233°
2026-05-07 12:21 49.24791 -121.24621 4381 ft 390 kts 246°
2026-05-07 12:21 49.24046 -121.28223 5223 ft 408 kts 261°
2026-05-07 12:21 49.24074 -121.32100 6637 ft 419 kts 279°
2026-05-07 12:22 49.24869 -121.36108 5295 ft 418 kts 291°
2026-05-07 12:22 49.26229 -121.39761 3211 ft 360 kts 303°
2026-05-07 12:22 49.27705 -121.43043 4714 ft 419 kts 313°
2026-05-07 12:22 49.29753 -121.45587 4710 ft 420 kts 328°
2026-05-07 12:23 49.32037 -121.47334 6199 ft 394 kts 342°
2026-05-07 12:23 49.34146 -121.48396 4173 ft 411 kts 343°
2026-05-07 12:23 49.36483 -121.49021 867 ft 423 kts 343°
2026-05-07 12:23 49.39267 -121.49577 4206 ft 424 kts 358°
2026-05-07 12:24 49.41490 -121.49324 4351 ft 396 kts 11°
2026-05-07 12:24 49.44133 -121.48402 4982 ft 426 kts 15°
2026-05-07 12:24 49.46657 -121.46615 2924 ft 371 kts 29°
2026-05-07 12:24 49.48466 -121.45054 2723 ft 424 kts 36°
2026-05-07 12:25 49.50521 -121.41875 963 ft 426 kts 48°
2026-05-07 12:25 49.51991 -121.38705 4411 ft 426 kts 58°
2026-05-07 12:25 49.53039 -121.34796 4706 ft 416 kts 77°
2026-05-07 12:25 49.53230 -121.31061 5341 ft 429 kts 94°
2026-05-07 12:26 49.52721 -121.27206 4290 ft 428 kts 107°
2026-05-07 12:26 49.51355 -121.23042 5083 ft 427 kts 128°
2026-05-07 12:26 49.49371 -121.20002 2970 ft 372 kts 140°
2026-05-07 12:26 49.47837 -121.18016 4758 ft 427 kts 144°
2026-05-07 12:27 49.45257 -121.15981 4835 ft 413 kts 162°
2026-05-07 12:27 49.42434 -121.15154 5525 ft 423 kts 175°
2026-05-07 12:27 49.40380 -121.15042 6852 ft 413 kts 184°
2026-05-07 12:27 49.37391 -121.16170 6069 ft 392 kts 205°
2026-05-07 12:28 49.34940 -121.17703 4335 ft 420 kts 207°
2026-05-07 12:28 49.32672 -121.19890 6463 ft 409 kts 220°
2026-05-07 12:28 49.31108 -121.22593 6366 ft 393 kts 237°
2026-05-07 12:28 49.30078 -121.25605 5996 ft 391 kts 250°
2026-05-07 12:29 49.29051 -121.29915 6486 ft 409 kts 255°
2026-05-07 12:29 49.28774 -121.33438 6410 ft 393 kts 271°
2026-05-07 12:29 49.28882 -121.37907 6251 ft 407 kts 278°
2026-05-07 12:29 49.29390 -121.41285 3362 ft 420 kts 278°
2026-05-07 12:30 49.30061 -121.45130 4434 ft 421 kts 293°
2026-05-07 12:30 49.31299 -121.48506 6016 ft 393 kts 308°
2026-05-07 12:30 49.33026 -121.51321 5105 ft 395 kts 321°
2026-05-07 12:30 49.34978 -121.53221 4612 ft 392 kts 335°
2026-05-07 12:31 49.37390 -121.55342 860 ft 408 kts 328°
2026-05-07 12:31 49.39777 -121.56928 4408 ft 421 kts 340°
2026-05-07 12:31 49.42474 -121.57750 2359 ft 365 kts 353°
2026-05-07 12:31 49.44926 -121.57891 4843 ft 424 kts
2026-05-07 12:32 49.47403 -121.56912 3931 ft 426 kts 19°
2026-05-07 12:32 49.49222 -121.55757 5995 ft 414 kts 27°
2026-05-07 12:32 49.51721 -121.53167 3980 ft 417 kts 38°
2026-05-07 12:32 49.53657 -121.49886 4639 ft 400 kts 57°
2026-05-07 12:33 49.55827 -121.42834 922 ft 414 kts 66°
2026-05-07 12:33 49.56483 -121.38464 2737 ft 425 kts 86°
2026-05-07 12:33 49.56396 -121.34512 4192 ft 400 kts 101°
2026-05-07 12:34 49.56075 -121.31938 3831 ft 426 kts 103°
2026-05-07 12:34 49.54806 -121.27543 6509 ft 425 kts 122°
2026-05-07 12:34 49.53020 -121.24228 4277 ft 367 kts 134°
2026-05-07 12:34 49.51591 -121.21836 5501 ft 413 kts 138°
2026-05-07 12:35 49.49746 -121.19717 2936 ft 423 kts 141°
2026-05-07 12:35 49.46997 -121.17272 4675 ft 414 kts 160°
2026-05-07 12:35 49.44161 -121.16480 4188 ft 393 kts 180°
2026-05-07 12:35 49.42267 -121.16587 6894 ft 422 kts 185°
2026-05-07 12:36 49.39819 -121.17369 6033 ft 421 kts 198°
2026-05-07 12:36 49.37065 -121.19415 3768 ft 421 kts 207°
2026-05-07 12:36 49.35165 -121.21166 5809 ft 410 kts 218°
2026-05-07 12:36 49.33537 -121.23532 6274 ft 419 kts 227°
2026-05-07 12:37 49.30597 -121.29821 5586 ft 421 kts 237°
2026-05-07 12:37 49.29396 -121.33714 3980 ft 418 kts 249°
2026-05-07 12:37 49.28701 -121.37564 6059 ft 409 kts 262°
2026-05-07 12:38 49.28536 -121.41889 4438 ft 419 kts 264°
2026-05-07 12:38 49.28543 -121.45883 5205 ft 391 kts 279°
2026-05-07 12:38 49.28944 -121.49431 6333 ft 418 kts 283°
2026-05-07 12:38 49.29900 -121.53298 6432 ft 394 kts 300°
2026-05-07 12:39 49.30943 -121.56513 3841 ft 421 kts 294°
2026-05-07 12:39 49.31992 -121.59232 4054 ft 390 kts 309°
2026-05-07 12:39 49.33490 -121.62492 886 ft 408 kts 304°
2026-05-07 12:39 49.35105 -121.65157 2659 ft 420 kts 322°
2026-05-07 12:40 49.38034 -121.67537 3240 ft 422 kts 338°
2026-05-07 12:40 49.40281 -121.68415 4480 ft 422 kts 354°
2026-05-07 12:40 49.43091 -121.68147 4679 ft 413 kts 12°
2026-05-07 12:40 49.45696 -121.66463 4888 ft 427 kts 32°
2026-05-07 12:41 49.47657 -121.63975 5017 ft 398 kts 48°
2026-05-07 12:41 49.50240 -121.57359 5261 ft 425 kts 74°
2026-05-07 12:41 49.50612 -121.53467 5627 ft 428 kts 88°
2026-05-07 12:42 49.50311 -121.49194 3412 ft 371 kts 100°
2026-05-07 12:42 49.49907 -121.45074 2268 ft 424 kts 106°
2026-05-07 12:42 49.48752 -121.41263 997 ft 424 kts 120°
2026-05-07 12:42 49.47189 -121.38046 3018 ft 424 kts 136°
2026-05-07 12:43 49.45312 -121.35694 4714 ft 424 kts 150°
2026-05-07 12:43 49.42785 -121.33932 6096 ft 397 kts 165°
2026-05-07 12:43 49.40496 -121.32747 3427 ft 412 kts 163°
2026-05-07 12:43 49.37587 -121.31924 2397 ft 422 kts 176°
2026-05-07 12:44 49.35749 -121.31801 4400 ft 411 kts 184°
2026-05-07 12:44 49.30303 -121.34031 5351 ft 411 kts 211°
2026-05-07 12:44 49.28694 -121.35901 5748 ft 420 kts 223°
2026-05-07 12:45 49.26973 -121.39194 3679 ft 364 kts 236°
2026-05-07 12:45 49.25430 -121.42039 5142 ft 421 kts 233°
2026-05-07 12:45 49.24246 -121.44999 6022 ft 420 kts 247°
2026-05-07 12:45 49.23523 -121.49348 6083 ft 393 kts 266°
2026-05-07 12:46 49.23505 -121.53767 6730 ft 409 kts 277°
2026-05-07 12:46 49.23963 -121.56860 4426 ft 422 kts 281°
2026-05-07 12:46 49.24934 -121.60970 2897 ft 418 kts 293°
2026-05-07 12:46 49.25968 -121.63988 4942 ft 409 kts 304°
2026-05-07 12:47 49.27833 -121.66969 4623 ft 395 kts 323°
2026-05-07 12:47 49.29933 -121.69854 848 ft 407 kts 316°
2026-05-07 12:47 49.31999 -121.72053 3579 ft 422 kts 330°
2026-05-07 12:47 49.34591 -121.73558 1805 ft 366 kts 343°
2026-05-07 12:48 49.36680 -121.74622 1783 ft 410 kts 347°
2026-05-07 12:48 49.39460 -121.74845 1957 ft 423 kts
2026-05-07 12:48 49.42295 -121.73678 4770 ft 424 kts 22°
2026-05-07 12:48 49.44480 -121.71762 4965 ft 399 kts 38°
2026-05-07 12:49 49.46554 -121.69331 4986 ft 425 kts 38°
2026-05-07 12:49 49.47950 -121.67223 5049 ft 428 kts 51°
2026-05-07 12:49 49.49532 -121.62922 6137 ft 425 kts 68°
2026-05-07 12:49 49.50212 -121.58764 4027 ft 369 kts 79°
2026-05-07 12:50 49.50559 -121.55832 5341 ft 416 kts 84°
2026-05-07 12:50 49.50314 -121.51003 4510 ft 398 kts 105°
2026-05-07 12:50 49.48787 -121.44067 2312 ft 397 kts 124°
2026-05-07 12:51 49.46626 -121.40058 2509 ft 424 kts 141°
2026-05-07 12:51 49.44749 -121.38251 3501 ft 422 kts 155°
2026-05-07 12:51 49.41988 -121.37000 4734 ft 411 kts 174°
2026-05-07 12:51 49.39981 -121.36985 5886 ft 410 kts 186°
2026-05-07 12:52 49.37370 -121.37701 1900 ft 422 kts 182°
2026-05-07 12:52 49.34837 -121.38337 5102 ft 419 kts 195°
2026-05-07 12:52 49.32582 -121.39824 5514 ft 409 kts 213°
2026-05-07 12:52 49.30082 -121.42782 2952 ft 408 kts 221°
2026-05-07 12:53 49.28608 -121.45426 3576 ft 420 kts 238°
2026-05-07 12:53 49.27507 -121.49305 3757 ft 407 kts 257°
2026-05-07 12:53 49.27297 -121.53538 6176 ft 417 kts 274°
2026-05-07 12:53 49.27829 -121.57340 5136 ft 419 kts 287°
2026-05-07 12:54 49.29041 -121.61135 2880 ft 359 kts 300°
2026-05-07 12:54 49.30186 -121.64252 2754 ft 411 kts 306°
2026-05-07 12:54 49.31958 -121.67239 2226 ft 423 kts 313°
2026-05-07 12:54 49.33939 -121.69694 1423 ft 420 kts 327°
2026-05-07 12:55 49.35795 -121.71069 1455 ft 421 kts 341°
2026-05-07 12:55 49.38231 -121.71882 4925 ft 422 kts 352°
2026-05-07 12:55 49.40997 -121.71784 5765 ft 423 kts 11°
2026-05-07 12:55 49.43914 -121.70212 3490 ft 424 kts 20°
2026-05-07 12:56 49.48031 -121.65648 4556 ft 428 kts 49°
2026-05-07 12:56 49.49208 -121.62940 5601 ft 426 kts 62°
2026-05-07 12:56 49.50152 -121.58713 5649 ft 398 kts 81°
2026-05-07 12:57 49.49970 -121.50915 5173 ft 398 kts 107°
2026-05-07 12:57 49.48991 -121.46238 2633 ft 396 kts 115°
2026-05-07 12:57 49.47739 -121.42809 1793 ft 395 kts 128°
2026-05-07 12:58 49.46350 -121.40179 2323 ft 423 kts 134°
2026-05-07 12:58 49.43942 -121.37402 4102 ft 423 kts 154°
2026-05-07 12:58 49.41369 -121.36025 6108 ft 424 kts 171°
2026-05-07 12:58 49.38583 -121.35901 3915 ft 367 kts 183°
2026-05-07 12:59 49.36679 -121.35608 1781 ft 411 kts 176°
2026-05-07 12:59 49.31302 -121.37318 5885 ft 421 kts 208°
2026-05-07 12:59 49.29051 -121.39781 3714 ft 364 kts 220°
2026-05-07 13:00 49.27443 -121.41426 3717 ft 421 kts 217°
2026-05-07 13:00 49.25579 -121.44157 4417 ft 421 kts 233°
2026-05-07 13:00 49.24122 -121.48258 6467 ft 409 kts 250°
2026-05-07 13:00 49.23606 -121.51790 6663 ft 421 kts 265°
2026-05-07 13:01 49.23742 -121.56015 4346 ft 365 kts 277°
2026-05-07 13:01 49.24136 -121.59161 3984 ft 394 kts 288°
2026-05-07 13:01 49.24977 -121.62699 4821 ft 421 kts 294°
2026-05-07 13:01 49.26602 -121.66465 4917 ft 410 kts 313°
2026-05-07 13:02 49.28580 -121.69197 818 ft 420 kts 308°
2026-05-07 13:02 49.30639 -121.72047 1501 ft 421 kts 326°
2026-05-07 13:02 49.33074 -121.73992 3056 ft 393 kts 341°
2026-05-07 13:02 49.35222 -121.75168 985 ft 410 kts 342°
2026-05-07 13:03 49.37423 -121.75738 800 ft 411 kts 357°
2026-05-07 13:03 49.40254 -121.75154 2092 ft 423 kts 16°
2026-05-07 13:03 49.42516 -121.73672 4899 ft 424 kts 28°
2026-05-07 13:03 49.44602 -121.71363 5045 ft 398 kts 44°
2026-05-07 13:04 49.46366 -121.68800 5209 ft 424 kts 43°
2026-05-07 13:04 49.47925 -121.65836 4439 ft 426 kts 57°
2026-05-07 13:04 49.48895 -121.62702 4603 ft 17 kts 76°
2026-05-07 13:04 49.48885 -121.62707 4571 ft 0 kts 82°
2026-05-07 13:05 49.48858 -121.62699 4503 ft 15 kts 30°
2026-05-07 13:05 49.48777 -121.62679 4311 ft 0 kts 96°
2026-05-07 13:05 49.48777 -121.62680 4311 ft 0 kts 96°
2026-05-07 13:06 49.48777 -121.62681 4311 ft 0 kts 96°
2026-05-07 13:06 49.48703 -121.62733 4141 ft 14 kts 169°
2026-05-07 13:06 49.48584 -121.62829 3912 ft 15 kts 68°
2026-05-07 13:07 49.48519 -121.62814 3832 ft 6 kts 357°
2026-05-07 13:07 49.48518 -121.62823 3831 ft 0 kts 358°